KC8P Weather Reports


time (UTC)temp
C
wind
direction
speed
KPH
gust
KPH
rain 1hr
cm
rain 24hr
cm
rain mn
cm
humidity
%
barometer
mb
20260506132440 7 78 4.8 6.4 0.00 0.00 0.00 65 1011.4
20260506132435 7 80 1.6 6.4 0.00 0.00 0.00 65 1011.4
20260506132426 7 337 3.2 6.4 0.00 0.00 0.00 64 1011.4
20260506132205 7 331 3.2 6.4 0.00 0.00 0.00 63 1011.4
20260506132156 7 46 1.6 9.7 0.00 0.00 0.00 64 1011.4
20260506132148 7 69 3.2 9.7 0.00 0.00 0.00 64 1011.8
20260506131922 7 54 1.6 9.7 0.00 0.00 0.00 64 1011.8
20260506131918 7 67 1.6 9.7 0.00 0.00 0.00 65 1011.4
20260506131909 7 18 3.2 9.7 0.00 0.00 0.00 64 1011.4
20260506131646 7 79 4.8 9.7 0.00 0.00 0.00 65 1011.8
20260506131637 7 35 3.2 9.7 0.00 0.00 0.00 66 1011.4
20260506131410 7 36 3.2 9.7 0.00 0.00 0.00 67 1011.4
20260506131304 6 62 0.0 9.7 0.00 0.00 0.00 70 1011.4
20260506131157 6 338 4.8 9.7 0.00 0.00 0.00 68 1011.4
20260506131050 6 34 1.6 9.7 0.00 0.00 0.00 68 1011.4
20260506130944 6 60 0.0 9.7 0.00 0.00 0.00 69 1011.4
20260506130907 6 26 3.2 9.7 0.00 0.00 0.00 69 1011.4
20260506130839 6 32 3.2 9.7 0.00 0.00 0.00 69 1011.4
20260506130746 6 66 1.6 9.7 0.00 0.00 0.00 69 1011.4
20260506130640 6 11 6.4 9.7 0.00 0.00 0.00 69 1011.4
20260506130521 6 50 0.0 9.7 0.00 0.00 0.00 69 1011.4
20260506130416 6 351 4.8 9.7 0.00 0.00 0.00 69 1011.1
20260506130401 6 351 4.8 9.7 0.00 0.00 0.00 69 1011.1
20260506130324 6 18 0.0 9.7 0.00 0.00 0.00 69 1011.1
20260506130205 6 337 4.8 9.7 0.00 0.00 0.00 69 1011.1
20260506130112 6 245 3.2 6.4 0.00 0.00 0.00 69 1011.1
20260506125953 6 333 6.4 6.4 0.00 0.00 0.00 69 1011.1
20260506125848 6 36 1.6 6.4 0.00 0.00 0.00 69 1011.1
20260506125743 7 21 4.8 6.4 0.00 0.00 0.00 68 1011.1
20260506125637 7 58 1.6 4.8 0.00 0.00 0.00 68 1010.8
20260506125531 7 13 3.2 4.8 0.00 0.00 0.00 68 1010.8
20260506125426 6 354 0.0 4.8 0.00 0.00 0.00 69 1011.1
20260506125348 6 11 0.0 4.8 0.00 0.00 0.00 69 1011.1
20260506125320 6 13 0.0 4.8 0.00 0.00 0.00 69 1011.1
20260506125213 6 349 1.6 4.8 0.00 0.00 0.00 67 1011.1
20260506125109 6 38 1.6 4.8 0.00 0.00 0.00 68 1011.1
20260506125002 6 28 1.6 4.8 0.00 0.00 0.00 69 1011.1
20260506124858 6 28 3.2 6.4 0.00 0.00 0.00 69 1011.1
20260506124841 6 59 4.8 6.4 0.00 0.00 0.00 68 1011.1
20260506124752 6 3 3.2 9.7 0.00 0.00 0.00 68 1010.8
20260506124647 6 33 1.6 9.7 0.00 0.00 0.00 68 1010.8
20260506124540 6 71 0.0 9.7 0.00 0.00 0.00 71 1011.1
20260506124435 6 82 0.0 9.7 0.00 0.00 0.00 70 1011.1
20260506124335 6 70 0.0 9.7 0.00 0.00 0.00 70 1010.8
20260506124329 6 70 1.6 9.7 0.00 0.00 0.00 70 1010.8
20260506124223 6 84 0.0 9.7 0.00 0.00 0.00 71 1011.1
20260506124118 6 65 0.0 9.7 0.00 0.00 0.00 71 1010.8
20260506124013 6 335 3.2 9.7 0.00 0.00 0.00 70 1010.8
20260506123907 6 65 4.8 9.7 0.00 0.00 0.00 70 1011.1
20260506123829 6 30 3.2 6.4 0.00 0.00 0.00 71 1011.1
20260506123801 6 47 3.2 6.4 0.00 0.00 0.00 71 1011.1
20260506123655 6 349 3.2 6.4 0.00 0.00 0.00 72 1010.8
20260506123549 6 61 3.2 6.4 0.00 0.00 0.00 73 1011.1
20260506123444 5 34 0.0 6.4 0.00 0.00 0.00 74 1011.1
20260506123322 5 339 0.0 11.3 0.00 0.00 0.00 74 1011.1
20260506123233 5 346 1.6 11.3 0.00 0.00 0.00 73 1011.1
20260506123127 5 21 0.0 11.3 0.00 0.00 0.00 73 1010.8
20260506123021 5 339 3.2 12.9 0.00 0.00 0.00 73 1010.8
20260506122916 5 27 1.6 12.9 0.00 0.00 0.00 73 1011.1
20260506122809 5 337 3.2 12.9 0.00 0.00 0.00 73 1011.1
20260506122704 5 349 3.2 12.9 0.00 0.00 0.00 74 1010.8
20260506122558 5 344 1.6 12.9 0.00 0.00 0.00 73 1010.8
20260506122453 5 16 3.2 12.9 0.00 0.00 0.00 73 1010.8
20260506122347 5 342 4.8 12.9 0.00 0.00 0.00 73 1010.8
20260506122310 5 1 0.0 12.9 0.00 0.00 0.00 73 1010.8
20260506122241 5 53 0.0 12.9 0.00 0.00 0.00 73 1010.8
20260506122135 5 357 11.3 12.9 0.00 0.00 0.00 73 1010.8
20260506122030 5 15 1.6 6.4 0.00 0.00 0.00 73 1010.8
20260506121924 5 66 3.2 6.4 0.00 0.00 0.00 73 1010.8
20260506121818 5 358 3.2 6.4 0.00 0.00 0.00 73 1010.8
20260506121803 5 8 4.8 6.4 0.00 0.00 0.00 72 1010.8
20260506121713 5 354 1.6 6.4 0.00 0.00 0.00 73 1010.8
20260506121607 5 28 0.0 6.4 0.00 0.00 0.00 72 1010.8
20260506121501 5 58 0.0 6.4 0.00 0.00 0.00 72 1010.8
20260506121356 5 66 0.0 6.4 0.00 0.00 0.00 72 1010.8
20260506121256 5 30 0.0 6.4 0.00 0.00 0.00 72 1010.8
20260506121250 5 42 0.0 6.4 0.00 0.00 0.00 72 1010.8
20260506121144 6 73 1.6 6.4 0.00 0.00 0.00 72 1010.8
20260506121039 6 63 3.2 6.4 0.00 0.00 0.00 71 1010.8
20260506120932 6 63 0.0 4.8 0.00 0.00 0.00 71 1010.8
20260506120828 6 70 1.6 4.8 0.00 0.00 0.00 72 1010.8
20260506120749 6 73 0.0 4.8 0.00 0.00 0.00 72 1010.8
20260506120722 6 64 1.6 4.8 0.00 0.00 0.00 72 1010.8
20260506120616 6 23 0.0 4.8 0.00 0.00 0.00 71 1011.1
20260506120511 6 39 1.6 4.8 0.00 0.00 0.00 72 1010.8
20260506120417 6 36 1.6 4.8 0.00 0.00 0.00 71 1011.1
20260506120243 6 28 0.0 4.8 0.00 0.00 0.00 72 1010.8
20260506120153 6 37 1.6 4.8 0.00 0.00 0.00 72 1010.8
20260506120047 5 73 1.6 4.8 0.00 0.00 0.00 72 1010.8
20260506115942 5 354 3.2 4.8 0.00 0.00 0.00 72 1010.8
20260506115837 5 6 0.0 4.8 0.00 0.00 0.00 72 1010.8
20260506115737 5 353 1.6 4.8 0.00 0.00 0.00 72 1010.8
20260506115731 5 349 1.6 4.8 0.00 0.00 0.00 72 1010.8
20260506115623 5 37 0.0 4.8 0.00 0.00 0.00 72 1010.4
20260506115515 5 355 4.8 4.8 0.00 0.00 0.00 72 1010.4
20260506115423 5 2 0.0 4.8 0.00 0.00 0.00 73 1010.4
20260506115306 5 4 1.6 4.8 0.00 0.00 0.00 73 1010.4
20260506115238 5 346 1.6 4.8 0.00 0.00 0.00 73 1010.4
20260506115159 5 355 0.0 4.8 0.00 0.00 0.00 73 1010.4
20260506115053 5 353 0.0 6.4 0.00 0.00 0.00 73 1010.4
20260506114947 5 352 0.0 6.4 0.00 0.00 0.00 72 1010.4
20260506114842 5 1 0.0 6.4 0.00 0.00 0.00 73 1010.4
20260506114735 5 28 0.0 6.4 0.00 0.00 0.00 73 1010.4
20260506114629 5 43 0.0 6.4 0.00 0.00 0.00 73 1010.0
20260506114524 5 36 3.2 6.4 0.00 0.00 0.00 73 1010.4
20260506114418 5 12 0.0 6.4 0.00 0.00 0.00 73 1010.4
20260506114313 5 28 1.6 6.4 0.00 0.00 0.00 72 1010.0
20260506114224 5 20 1.6 6.4 0.00 0.00 0.00 72 1010.0
20260506114208 5 48 3.2 6.4 0.00 0.00 0.00 73 1010.0
20260506114102 5 343 3.2 6.4 0.00 0.00 0.00 73 1010.4
20260506113957 5 333 1.6 3.2 0.00 0.00 0.00 73 1010.4
20260506113849 5 355 1.6 3.2 0.00 0.00 0.00 73 1010.0
20260506113745 5 328 1.6 3.2 0.00 0.00 0.00 73 1010.0
20260506113717 5 7 0.0 3.2 0.00 0.00 0.00 73 1010.4
20260506113639 5 20 1.6 3.2 0.00 0.00 0.00 73 1010.4
20260506113533 5 344 0.0 3.2 0.00 0.00 0.00 74 1010.0
20260506113427 5 11 0.0 3.2 0.00 0.00 0.00 74 1010.0
20260506113321 5 339 0.0 3.2 0.00 0.00 0.00 74 1010.0
20260506113215 5 340 0.0 3.2 0.00 0.00 0.00 74 1010.0
20260506113110 5 343 1.6 3.2 0.00 0.00 0.00 74 1010.0
20260506113005 5 13 0.0 3.2 0.00 0.00 0.00 74 1010.0
20260506112859 5 6 0.0 3.2 0.00 0.00 0.00 73 1010.0
20260506112753 5 347 0.0 3.2 0.00 0.00 0.00 74 1010.0
20260506112705 5 6 0.0 3.2 0.00 0.00 0.00 74 1009.6
20260506112647 5 9 0.0 3.2 0.00 0.00 0.00 74 1009.6
20260506112542 5 8 1.6 3.2 0.00 0.00 0.00 74 1010.0
20260506112436 5 334 0.0 3.2 0.00 0.00 0.00 73 1010.0
20260506112332 5 334 1.6 3.2 0.00 0.00 0.00 73 1010.0
20260506112225 5 335 0.0 3.2 0.00 0.00 0.00 73 1009.6
20260506112159 5 335 1.6 3.2 0.00 0.00 0.00 73 1009.6
20260506112120 5 340 0.0 3.2 0.00 0.00 0.00 73 1009.6
20260506112014 5 11 0.0 3.2 0.00 0.00 0.00 73 1009.6
20260506111908 5 347 1.6 3.2 0.00 0.00 0.00 73 1009.6
20260506111803 5 345 0.0 3.2 0.00 0.00 0.00 73 1009.6
20260506111657 5 358 0.0 3.2 0.00 0.00 0.00 73 1009.6
20260506111550 5 332 0.0 3.2 0.00 0.00 0.00 73 1009.6
20260506111443 5 332 0.0 3.2 0.00 0.00 0.00 72 1009.6
20260506111339 5 332 1.6 3.2 0.00 0.00 0.00 72 1010.0
20260506111233 5 339 1.6 3.2 0.00 0.00 0.00 72 1010.0
20260506111144 5 20 0.0 3.2 0.00 0.00 0.00 73 1010.0
20260506111128 5 23 0.0 3.2 0.00 0.00 0.00 73 1009.6
20260506111035 5 31 1.6 3.2 0.00 0.00 0.00 73 1009.6
20260506110916 5 334 1.6 3.2 0.00 0.00 0.00 73 1009.6
20260506110811 5 334 1.6 3.2 0.00 0.00 0.00 72 1010.0
20260506110718 5 333 1.6 3.2 0.00 0.00 0.00 72 1009.6
20260506110638 5 346 1.6 3.2 0.00 0.00 0.00 72 1009.6
20260506110600 5 11 1.6 3.2 0.00 0.00 0.00 72 1009.6
20260506110453 5 348 0.0 3.2 0.00 0.00 0.00 72 1010.0
20260506110347 5 17 0.0 3.2 0.00 0.00 0.00 72 1009.6
20260506110241 5 329 1.6 3.2 0.00 0.00 0.00 71 1009.6
20260506110138 5 329 1.6 3.2 0.00 0.00 0.00 71 1009.6
20260506110030 5 329 1.6 3.2 0.00 0.00 0.00 71 1009.6
20260506105925 5 359 3.2 3.2 0.00 0.00 0.00 72 1009.6
20260506105819 5 332 0.0 3.2 0.00 0.00 0.00 71 1009.6
20260506105712 5 334 0.0 3.2 0.00 0.00 0.00 71 1009.6
20260506105624 5 329 1.6 3.2 0.00 0.00 0.00 71 1009.6
20260506105607 5 329 0.0 3.2 0.00 0.00 0.00 71 1009.6
20260506105502 5 340 1.6 3.2 0.00 0.00 0.00 71 1009.6
20260506105355 5 349 0.0 0.0 0.00 0.00 0.00 71 1009.3
20260506105250 5 354 0.0 0.0 0.00 0.00 0.00 71 1009.6
20260506105118 5 357 0.0 0.0 0.00 0.00 0.00 70 1009.6
20260506105038 5 354 0.0 0.0 0.00 0.00 0.00 71 1009.3
20260506104933 5 352 0.0 0.0 0.00 0.00 0.00 71 1009.3
20260506104827 5 4 0.0 0.0 0.00 0.00 0.00 71 1009.3
20260506104722 5 329 0.0 0.0 0.00 0.00 0.00 70 1009.6
20260506104616 5 329 0.0 0.0 0.00 0.00 0.00 71 1009.6
20260506104511 5 341 0.0 0.0 0.00 0.00 0.00 72 1009.3
20260506104405 5 333 0.0 0.0 0.00 0.00 0.00 71 1009.6
20260506104300 5 333 0.0 0.0 0.00 0.00 0.00 71 1009.3
20260506104154 5 8 0.0 0.0 0.00 0.00 0.00 71 1009.3
20260506104105 5 13 0.0 1.6 0.00 0.00 0.00 71 1009.6
20260506104048 5 340 0.0 1.6 0.00 0.00 0.00 71 1009.6
20260506103943 5 341 0.0 1.6 0.00 0.00 0.00 70 1009.3
20260506103838 5 341 0.0 1.6 0.00 0.00 0.00 70 1009.3
20260506103829 5 349 0.0 3.2 0.00 0.00 0.00 69 1009.6
20260506103824 5 341 0.0 3.2 0.00 0.00 0.00 70 1009.6
20260506103815 5 349 0.0 3.2 0.00 0.00 0.00 69 1009.6
20260506103519 5 350 0.0 3.2 0.00 0.00 0.00 69 1009.6
20260506103413 5 345 0.0 3.2 0.00 0.00 0.00 69 1009.6
20260506103308 6 340 0.0 3.2 0.00 0.00 0.00 69 1009.6
20260506103202 6 346 0.0 4.8 0.00 0.00 0.00 70 1009.6
20260506103056 6 347 0.0 4.8 0.00 0.00 0.00 69 1009.3
20260506102951 6 345 0.0 4.8 0.00 0.00 0.00 69 1009.6
20260506102845 6 338 0.0 4.8 0.00 0.00 0.00 69 1009.6
20260506102739 6 343 3.2 4.8 0.00 0.00 0.00 69 1009.3
20260506102634 6 5 0.0 4.8 0.00 0.00 0.00 69 1009.6
20260506102546 6 331 1.6 4.8 0.00 0.00 0.00 69 1009.6
20260506102528 6 330 3.2 4.8 0.00 0.00 0.00 69 1009.3
20260506102422 6 353 1.6 4.8 0.00 0.00 0.00 69 1009.6
20260506102317 6 344 3.2 4.8 0.00 0.00 0.00 70 1009.3
20260506102211 6 330 1.6 3.2 0.00 0.00 0.00 70 1009.6
20260506102106 6 326 1.6 3.2 0.00 0.00 0.00 70 1009.6
20260506102038 6 328 3.2 3.2 0.00 0.00 0.00 71 1009.6
20260506102000 6 337 0.0 3.2 0.00 0.00 0.00 71 1009.3
20260506101854 6 337 0.0 3.2 0.00 0.00 0.00 70 1009.3
20260506101748 6 337 1.6 3.2 0.00 0.00 0.00 71 1009.3
20260506101643 6 337 0.0 3.2 0.00 0.00 0.00 70 1009.3
20260506101537 6 337 0.0 3.2 0.00 0.00 0.00 70 1009.3
20260506101431 6 337 1.6 3.2 0.00 0.00 0.00 69 1009.3
20260506101326 6 65 0.0 1.6 0.00 0.00 0.00 70 1009.3
20260506101220 6 69 0.0 1.6 0.00 0.00 0.00 70 1009.3
20260506101114 6 32 0.0 3.2 0.00 0.00 0.00 69 1009.3
20260506101026 6 5 0.0 3.2 0.00 0.00 0.00 69 1009.3
20260506101009 6 340 0.0 3.2 0.00 0.00 0.00 69 1009.3
20260506100903 6 33 0.0 4.8 0.00 0.00 0.00 69 1009.0
20260506100758 6 30 0.0 4.8 0.00 0.00 0.00 69 1009.0
20260506100651 6 27 0.0 4.8 0.00 0.00 0.00 69 1009.0
20260506100546 6 45 0.0 4.8 0.00 0.00 0.00 69 1009.3
20260506100519 6 45 0.0 4.8 0.00 0.00 0.00 69 1009.0
20260506100440 6 31 0.0 4.8 0.00 0.00 0.00 69 1009.0
20260506100336 6 56 1.6 4.8 0.00 0.00 0.00 69 1009.0
20260506100232 6 36 0.0 4.8 0.00 0.00 0.00 69 1009.0
20260506100136 6 25 0.0 4.8 0.00 0.00 0.00 69 1009.0
20260506100018 6 341 3.2 4.8 0.00 0.00 0.00 70 1009.0
20260506095912 6 46 1.6 3.2 0.00 0.00 0.00 70 1009.0
20260506095805 6 35 0.0 3.2 0.00 0.00 0.00 70 1009.0
20260506095658 6 42 0.0 4.8 0.00 0.00 0.00 70 1009.0
20260506095553 6 41 0.0 4.8 0.00 0.00 0.00 70 1009.0
20260506095505 6 32 0.0 4.8 0.00 0.00 0.00 70 1009.0
20260506095448 6 55 0.0 4.8 0.00 0.00 0.00 70 1009.0
20260506095342 6 47 0.0 4.8 0.00 0.00 0.00 69 1009.0
20260506095236 6 41 1.6 4.8 0.00 0.00 0.00 70 1009.0
20260506095130 6 34 0.0 4.8 0.00 0.00 0.00 70 1009.0
20260506095025 6 61 1.6 4.8 0.00 0.00 0.00 70 1009.0
20260506094959 6 23 1.6 4.8 0.00 0.00 0.00 69 1009.0
20260506094919 6 43 1.6 4.8 0.00 0.00 0.00 69 1008.6
20260506094814 6 42 0.0 4.8 0.00 0.00 0.00 70 1009.0
20260506094707 6 17 1.6 4.8 0.00 0.00 0.00 71 1009.0
20260506094603 6 36 3.2 9.7 0.00 0.00 0.00 71 1009.0
20260506094454 6 358 3.2 9.7 0.00 0.00 0.00 72 1009.0
20260506094349 6 37 1.6 9.7 0.00 0.00 0.00 72 1008.6
20260506094243 6 65 0.0 9.7 0.00 0.00 0.00 73 1009.0
20260506094137 6 21 0.0 9.7 0.00 0.00 0.00 73 1009.0
20260506094032 6 38 0.0 9.7 0.00 0.00 0.00 73 1009.0
20260506093928 6 52 1.6 9.7 0.00 0.00 0.00 73 1009.0
20260506093820 6 52 0.0 9.7 0.00 0.00 0.00 73 1009.0
20260506093715 6 40 1.6 9.7 0.00 0.00 0.00 74 1009.0
20260506093609 6 354 6.4 9.7 0.00 0.00 0.00 73 1009.0
20260506093504 6 332 1.6 9.7 0.00 0.00 0.00 73 1009.0
20260506093438 6 25 0.0 9.7 0.00 0.00 0.00 73 1009.0
20260506093254 6 24 0.0 4.8 0.00 0.00 0.00 74 1008.6
20260506093041 6 30 3.2 6.4 0.00 0.00 0.00 74 1008.6
20260506092934 6 26 0.0 6.4 0.00 0.00 0.00 74 1009.0
20260506092829 6 22 0.0 6.4 0.00 0.00 0.00 74 1009.0
20260506092723 6 19 1.6 6.4 0.00 0.00 0.00 74 1009.0
20260506092618 6 314 0.0 6.4 0.00 0.00 0.00 74 1009.0
20260506092514 6 342 1.6 6.4 0.00 0.00 0.00 74 1009.0
20260506092425 6 1 3.2 6.4 0.00 0.00 0.00 74 1009.0
20260506092305 6 15 3.2 6.4 0.00 0.00 0.00 74 1009.0
20260506092159 6 351 6.4 6.4 0.00 0.00 0.00 74 1009.0
20260506092052 6 19 1.6 3.2 0.00 0.00 0.00 75 1008.6
20260506091947 6 326 3.2 3.2 0.00 0.00 0.00 75 1008.6
20260506091920 6 45 0.0 3.2 0.00 0.00 0.00 75 1008.6
20260506091841 6 51 0.0 3.2 0.00 0.00 0.00 74 1008.3
20260506091735 6 6 3.2 3.2 0.00 0.00 0.00 75 1009.0
20260506091524 6 45 0.0 3.2 0.00 0.00 0.00 75 1008.6
20260506091418 6 48 0.0 3.2 0.00 0.00 0.00 75 1008.6
20260506091312 6 48 0.0 3.2 0.00 0.00 0.00 75 1008.6
20260506091207 7 37 0.0 3.2 0.00 0.00 0.00 75 1008.6
20260506090954 7 53 0.0 6.4 0.00 0.00 0.00 75 1008.6
20260506090907 7 38 0.0 11.3 0.00 0.00 0.00 75 1008.6
20260506090849 7 54 1.6 11.3 0.00 0.00 0.00 75 1008.6
20260506090744 7 46 1.6 11.3 0.00 0.00 0.00 75 1008.6
20260506090638 7 47 0.0 11.3 0.00 0.00 0.00 75 1008.6
20260506090533 7 41 0.0 11.3 0.00 0.00 0.00 75 1008.6
20260506090426 7 51 0.0 11.3 0.00 0.00 0.00 74 1008.6
20260506090400 7 55 1.6 11.3 0.00 0.00 0.00 74 1008.6
20260506090321 7 41 0.0 11.3 0.00 0.00 0.00 74 1008.3
20260506090215 7 357 1.6 11.3 0.00 0.00 0.00 74 1008.6
20260506090110 7 28 1.6 11.3 0.00 0.00 0.00 74 1008.3
20260506090005 7 26 1.6 11.3 0.00 0.00 0.00 74 1008.6
20260506085858 7 44 0.0 3.2 0.00 0.00 0.00 74 1008.6
20260506085752 7 32 0.0 1.6 0.00 0.00 0.00 74 1008.6
20260506085648 7 22 0.0 1.6 0.00 0.00 0.00 73 1008.6
20260506085541 7 24 0.0 1.6 0.00 0.00 0.00 73 1008.6
20260506085435 7 9 0.0 1.6 0.00 0.00 0.00 73 1008.6
20260506085347 7 10 0.0 1.6 0.00 0.00 0.00 73 1008.6
20260506085329 7 19 0.0 1.6 0.00 0.00 0.00 73 1008.6
20260506085225 7 17 0.0 4.8 0.00 0.00 0.00 73 1008.6
20260506085117 7 358 0.0 4.8 0.00 0.00 0.00 73 1008.6
20260506085012 7 8 0.0 4.8 0.00 0.00 0.00 73 1008.6
20260506084907 7 15 0.0 4.8 0.00 0.00 0.00 72 1008.3
20260506084840 7 20 1.6 4.8 0.00 0.00 0.00 72 1008.3
20260506084801 7 3 0.0 6.4 0.00 0.00 0.00 72 1008.3
20260506084655 7 27 0.0 6.4 0.00 0.00 0.00 72 1008.3
20260506084550 7 32 0.0 6.4 0.00 0.00 0.00 72 1008.3
20260506084444 7 32 0.0 6.4 0.00 0.00 0.00 71 1008.6
20260506084338 7 22 0.0 6.4 0.00 0.00 0.00 71 1008.6
20260506084233 7 345 0.0 6.4 0.00 0.00 0.00 71 1008.6
20260506084127 7 27 0.0 6.4 0.00 0.00 0.00 71 1008.6
20260506084020 7 8 0.0 6.4 0.00 0.00 0.00 71 1008.6
20260506083914 7 2 3.2 6.4 0.00 0.00 0.00 71 1008.6
20260506083825 7 345 1.6 4.8 0.00 0.00 0.00 71 1008.6
20260506083809 7 347 0.0 4.8 0.00 0.00 0.00 71 1008.6
20260506083702 7 24 1.6 4.8 0.00 0.00 0.00 71 1008.6
20260506083557 7 30 0.0 4.8 0.00 0.00 0.00 71 1008.6
20260506083451 7 2 1.6 4.8 0.00 0.00 0.00 71 1008.6
20260506083346 7 335 1.6 4.8 0.00 0.00 0.00 70 1008.3
20260506083319 7 32 1.6 3.2 0.00 0.00 0.00 70 1008.6
20260506083241 7 11 0.0 3.2 0.00 0.00 0.00 70 1008.6
20260506083136 7 356 0.0 3.2 0.00 0.00 0.00 70 1008.6
20260506083029 7 18 0.0 3.2 0.00 0.00 0.00 70 1008.6
20260506082923 7 340 0.0 3.2 0.00 0.00 0.00 71 1008.3
20260506082818 7 346 0.0 3.2 0.00 0.00 0.00 71 1008.3
20260506082713 7 8 0.0 3.2 0.00 0.00 0.00 70 1008.6
20260506082606 7 14 1.6 6.4 0.00 0.00 0.00 69 1008.6
20260506082501 7 335 1.6 6.4 0.00 0.00 0.00 69 1008.6
20260506082355 7 8 3.2 6.4 0.00 0.00 0.00 69 1008.6
20260506082307 7 330 0.0 6.4 0.00 0.00 0.00 69 1008.6
20260506082250 7 316 0.0 6.4 0.00 0.00 0.00 69 1008.6
20260506082144 7 343 0.0 6.4 0.00 0.00 0.00 69 1008.3
20260506082039 7 330 3.2 6.4 0.00 0.00 0.00 69 1008.3
20260506081933 7 325 1.6 6.4 0.00 0.00 0.00 69 1008.3
20260506081827 7 317 1.6 6.4 0.00 0.00 0.00 69 1008.6
20260506081801 7 334 0.0 6.4 0.00 0.00 0.00 69 1008.6
20260506081722 7 319 4.8 6.4 0.00 0.00 0.00 68 1008.3
20260506081616 7 323 1.6 4.8 0.00 0.00 0.00 68 1008.6
20260506081510 7 319 1.6 4.8 0.00 0.00 0.00 68 1008.6
20260506081405 7 314 1.6 4.8 0.00 0.00 0.00 68 1008.6
20260506081258 7 2 1.6 4.8 0.00 0.00 0.00 67 1008.6
20260506081153 7 330 1.6 4.8 0.00 0.00 0.00 67 1008.6
20260506081047 7 348 1.6 4.8 0.00 0.00 0.00 67 1008.6
20260506080941 7 330 0.0 4.8 0.00 0.00 0.00 67 1008.3
20260506080837 7 333 0.0 4.8 0.00 0.00 0.00 67 1008.6
20260506080747 7 333 0.0 4.8 0.00 0.00 0.00 67 1008.6
20260506080730 7 15 3.2 4.8 0.00 0.00 0.00 67 1008.6
20260506080625 7 335 0.0 3.2 0.00 0.00 0.00 67 1008.6
20260506080519 7 334 0.0 3.2 0.00 0.00 0.00 67 1008.6
20260506080416 7 17 0.0 3.2 0.00 0.00 0.00 68 1008.6
20260506080307 7 329 0.0 4.8 0.00 0.00 0.00 67 1008.3
20260506080240 7 333 0.0 4.8 0.00 0.00 0.00 67 1008.3
20260506080202 7 332 0.0 6.4 0.00 0.00 0.00 67 1008.6
20260506073437 8 318 3.2 4.8 0.00 0.00 0.00 63 1008.3
20260506073331 8 320 4.8 4.8 0.00 0.00 0.00 63 1007.9
20260506073226 8 305 1.6 4.8 0.00 0.00 0.00 63 1008.3
20260506073159 8 321 4.8 4.8 0.00 0.00 0.00 63 1008.3
20260506073120 8 343 4.8 4.8 0.00 0.00 0.00 64 1008.3
20260506073015 8 346 1.6 4.8 0.00 0.00 0.00 64 1008.3
20260506072910 8 357 3.2 4.8 0.00 0.00 0.00 64 1008.3
20260506072804 8 288 0.0 4.8 0.00 0.00 0.00 64 1007.9
20260506072658 8 349 1.6 4.8 0.00 0.00 0.00 64 1007.9
20260506072551 8 327 1.6 4.8 0.00 0.00 0.00 63 1008.3
20260506072445 8 327 3.2 4.8 0.00 0.00 0.00 63 1008.3
20260506072339 8 319 1.6 4.8 0.00 0.00 0.00 63 1008.3
20260506072233 8 345 3.2 4.8 0.00 0.00 0.00 63 1008.3
20260506072145 8 344 3.2 4.8 0.00 0.00 0.00 63 1008.3
20260506072128 8 336 1.6 4.8 0.00 0.00 0.00 63 1008.3
20260506072023 8 319 1.6 4.8 0.00 0.00 0.00 63 1008.3
20260506071916 8 330 1.6 4.8 0.00 0.00 0.00 63 1008.3
20260506071810 8 326 1.6 9.7 0.00 0.00 0.00 63 1007.9
20260506071706 8 40 1.6 9.7 0.00 0.00 0.00 63 1008.3
20260506071638 8 350 3.2 9.7 0.00 0.00 0.00 63 1008.3
20260506071600 8 8 1.6 9.7 0.00 0.00 0.00 63 1008.3
20260506071453 8 333 3.2 9.7 0.00 0.00 0.00 63 1008.6
20260506071348 8 339 0.0 9.7 0.00 0.00 0.00 63 1008.6
20260506071242 8 316 1.6 9.7 0.00 0.00 0.00 62 1008.6
20260506071136 8 336 0.0 9.7 0.00 0.00 0.00 62 1008.3
20260506071031 8 337 3.2 9.7 0.00 0.00 0.00 62 1008.3
20260506070924 8 4 3.2 9.7 0.00 0.00 0.00 62 1008.3
20260506070819 8 344 4.8 9.7 0.00 0.00 0.00 62 1008.3
20260506070713 8 324 1.6 9.7 0.00 0.00 0.00 62 1008.6
20260506070625 8 306 1.6 9.7 0.00 0.00 0.00 62 1008.3
20260506070607 8 327 4.8 9.7 0.00 0.00 0.00 62 1008.3
20260506070502 8 321 0.0 9.7 0.00 0.00 0.00 62 1008.3
20260506070355 8 315 1.6 9.7 0.00 0.00 0.00 62 1008.3
20260506070250 8 331 0.0 9.7 0.00 0.00 0.00 62 1008.3
20260506070144 8 330 1.6 9.7 0.00 0.00 0.00 62 1008.3
20260506070118 8 309 1.6 9.7 0.00 0.00 0.00 62 1008.3
20260506062431 8 326 0.0 4.8 0.00 0.00 0.00 59 1008.6
20260506062325 8 330 0.0 4.8 0.00 0.00 0.00 59 1008.6
20260506062300 8 287 1.6 6.4 0.00 0.00 0.00 58 1008.6
20260506062255 8 248 0.0 4.8 0.00 0.00 0.00 59 1008.6
20260506062245 8 184 0.0 4.8 0.00 0.00 0.00 59 1008.3
20260506062007 8 341 1.6 11.3 0.00 0.00 0.00 58 1008.6
20260506061901 8 336 3.2 11.3 0.00 0.00 0.00 58 1008.6
20260506061756 8 324 3.2 11.3 0.00 0.00 0.00 58 1008.6
20260506061747 8 326 3.2 11.3 0.00 0.00 0.00 58 1008.3
20260506061738 8 315 0.0 11.3 0.00 0.00 0.00 58 1008.6
20260506061439 8 329 1.6 11.3 0.00 0.00 0.00 58 1008.6
20260506061334 8 328 1.6 11.3 0.00 0.00 0.00 57 1008.3
20260506061249 8 326 3.2 11.3 0.00 0.00 0.00 57 1008.3
20260506061240 8 326 3.2 11.3 0.00 0.00 0.00 57 1008.6
20260506061229 8 330 6.4 9.7 0.00 0.00 0.00 58 1008.6
20260506060911 8 309 1.6 4.8 0.00 0.00 0.00 58 1008.6
20260506060805 8 27 0.0 4.8 0.00 0.00 0.00 57 1008.6
20260506060737 8 305 3.2 4.8 0.00 0.00 0.00 57 1008.3
20260506060732 8 330 3.2 4.8 0.00 0.00 0.00 57 1008.6
20260506060723 8 332 1.6 4.8 0.00 0.00 0.00 57 1008.3
20260506060447 8 325 1.6 4.8 0.00 0.00 0.00 57 1008.3
20260506060342 8 322 1.6 4.8 0.00 0.00 0.00 57 1008.6
20260506060235 8 276 3.2 4.8 0.00 0.00 0.00 57 1008.6
20260506060130 8 298 3.2 4.8 0.00 0.00 0.00 58 1008.3
20260506051354 9 341 1.6 3.2 0.00 0.00 0.00 57 1008.6
20260506051316 9 282 0.0 3.2 0.00 0.00 0.00 57 1008.6
20260506051209 9 300 0.0 3.2 0.00 0.00 0.00 58 1008.6
20260506051103 9 308 0.0 3.2 0.00 0.00 0.00 57 1008.3
20260506050957 9 324 0.0 4.8 0.00 0.00 0.00 56 1008.3
20260506050851 9 278 1.6 4.8 0.00 0.00 0.00 58 1007.9
20260506050746 9 227 1.6 4.8 0.00 0.00 0.00 57 1008.6
20260506050640 9 340 1.6 4.8 0.00 0.00 0.00 56 1008.6
20260506050534 9 319 1.6 4.8 0.00 0.00 0.00 57 1008.3
20260506050430 9 291 0.0 6.4 0.00 0.00 0.00 57 1008.3
20260506050340 9 290 0.0 6.4 0.00 0.00 0.00 57 1008.3
20260506050323 9 300 0.0 6.4 0.00 0.00 0.00 57 1008.3
20260506050217 9 277 0.0 6.4 0.00 0.00 0.00 56 1008.3
20260506050116 9 258 0.0 6.4 0.00 0.00 0.00 56 1008.3
20260506045121 9 276 0.0 6.4 0.00 0.00 0.00 57 1008.3
20260506045015 9 250 1.6 6.4 0.00 0.00 0.00 56 1008.3
20260506044909 9 325 0.0 4.8 0.00 0.00 0.00 57 1008.3
20260506044820 9 320 1.6 9.7 0.00 0.00 0.00 56 1007.9
20260506044804 9 351 3.2 9.7 0.00 0.00 0.00 57 1007.9
20260506044658 9 314 0.0 9.7 0.00 0.00 0.00 57 1007.9
20260506044552 9 325 0.0 9.7 0.00 0.00 0.00 57 1007.9
20260506044447 9 333 3.2 9.7 0.00 0.00 0.00 57 1007.9
20260506044340 9 340 1.6 9.7 0.00 0.00 0.00 57 1007.9
20260506044314 9 318 1.6 9.7 0.00 0.00 0.00 57 1007.9
20260506044235 9 303 1.6 9.7 0.00 0.00 0.00 58 1008.3
20260506044130 9 294 0.0 9.7 0.00 0.00 0.00 57 1008.3
20260506044023 9 307 1.6 9.7 0.00 0.00 0.00 56 1008.3
20260506043919 9 312 1.6 9.7 0.00 0.00 0.00 56 1007.9
20260506043812 9 316 1.6 4.8 0.00 0.00 0.00 57 1007.9
20260506043707 9 341 0.0 4.8 0.00 0.00 0.00 57 1007.9
20260506043601 9 7 1.6 4.8 0.00 0.00 0.00 57 1007.9
20260506043455 9 298 0.0 4.8 0.00 0.00 0.00 57 1008.3
20260506043349 9 226 0.0 4.8 0.00 0.00 0.00 57 1008.3
20260506043301 9 226 1.6 4.8 0.00 0.00 0.00 57 1007.9
20260506043244 9 269 1.6 4.8 0.00 0.00 0.00 57 1007.9
20260506043138 9 312 3.2 4.8 0.00 0.00 0.00 57 1007.9
20260506043032 9 312 1.6 4.8 0.00 0.00 0.00 56 1007.9
20260506042927 9 318 3.2 4.8 0.00 0.00 0.00 57 1007.9
20260506042821 9 280 1.6 4.8 0.00 0.00 0.00 57 1007.9
20260506042755 9 281 1.6 4.8 0.00 0.00 0.00 57 1007.9
20260506042715 9 322 1.6 4.8 0.00 0.00 0.00 57 1007.9
20260506042610 9 328 1.6 4.8 0.00 0.00 0.00 57 1007.9
20260506042503 9 324 1.6 4.8 0.00 0.00 0.00 57 1008.3
20260506042359 9 324 0.0 4.8 0.00 0.00 0.00 57 1007.9
20260506042253 9 334 0.0 4.8 0.00 0.00 0.00 56 1008.3
20260506042148 9 344 1.6 4.8 0.00 0.00 0.00 56 1008.3
20260506042041 9 328 1.6 3.2 0.00 0.00 0.00 57 1007.9
20260506041935 9 288 1.6 3.2 0.00 0.00 0.00 57 1007.9
20260506041830 9 314 1.6 3.2 0.00 0.00 0.00 57 1007.9
20260506041741 9 315 1.6 3.2 0.00 0.00 0.00 57 1007.9
20260506041725 9 337 1.6 3.2 0.00 0.00 0.00 57 1007.9
20260506041620 9 305 0.0 3.2 0.00 0.00 0.00 58 1008.3
20260506041513 9 161 0.0 3.2 0.00 0.00 0.00 57 1007.9
20260506041408 9 289 0.0 3.2 0.00 0.00 0.00 57 1007.9
20260506041302 9 289 0.0 3.2 0.00 0.00 0.00 57 1007.9
20260506041236 9 290 0.0 3.2 0.00 0.00 0.00 57 1007.9
20260506041157 9 290 0.0 3.2 0.00 0.00 0.00 57 1007.9
20260506041050 9 310 0.0 3.2 0.00 0.00 0.00 57 1007.9
20260506040944 9 302 0.0 4.8 0.00 0.00 0.00 58 1007.9
20260506040837 9 320 0.0 4.8 0.00 0.00 0.00 58 1008.3
20260506040733 9 5 1.6 4.8 0.00 0.00 0.00 57 1008.3
20260506040627 9 272 3.2 4.8 0.00 0.00 0.00 56 1008.3
20260506040533 9 312 0.0 4.8 0.00 0.00 0.00 56 1008.3
20260506040415 9 324 0.0 4.8 0.00 0.00 0.00 57 1008.3
20260506040221 9 332 0.0 4.8 0.00 0.00 0.00 56 1007.9
20260506040204 9 332 0.0 4.8 0.00 0.00 0.00 56 1007.9
20260506035952 9 283 1.6 3.2 0.00 0.00 0.08 56 1008.3
20260506035847 9 320 0.0 3.2 0.00 0.00 0.08 56 1008.3
20260506035741 9 350 1.6 3.2 0.00 0.00 0.08 56 1008.3
20260506035715 9 327 1.6 3.2 0.00 0.00 0.08 56 1008.3
20260506035635 9 287 1.6 3.2 0.00 0.00 0.08 57 1008.3
20260506035530 9 276 0.0 1.6 0.00 0.00 0.08 57 1008.6
20260506035424 9 276 0.0 1.6 0.00 0.00 0.08 56 1008.3
20260506035319 9 277 0.0 4.8 0.00 0.00 0.08 56 1008.3
20260506035213 9 284 0.0 4.8 0.00 0.00 0.08 56 1008.3
20260506035107 9 290 0.0 4.8 0.00 0.00 0.08 55 1008.3
20260506035002 9 300 0.0 4.8 0.00 0.00 0.08 56 1008.6
20260506034856 9 241 1.6 4.8 0.00 0.00 0.08 57 1008.3
20260506034749 9 203 0.0 4.8 0.00 0.00 0.08 57 1008.6
20260506034643 9 222 0.0 4.8 0.00 0.00 0.08 57 1008.3
20260506034537 9 219 0.0 4.8 0.00 0.00 0.08 57 1008.3
20260506034431 9 213 1.6 4.8 0.00 0.00 0.08 57 1008.3
20260506034326 9 287 0.0 3.2 0.00 0.00 0.08 55 1008.3
20260506034219 9 349 0.0 3.2 0.00 0.00 0.08 56 1008.3
20260506034153 9 311 0.0 3.2 0.00 0.00 0.08 56 1008.3
20260506034114 9 281 0.0 3.2 0.00 0.00 0.08 56 1008.3
20260506034009 9 283 0.0 3.2 0.00 0.00 0.08 56 1008.3
20260506033903 9 254 0.0 6.4 0.00 0.00 0.08 56 1008.6
20260506033758 9 247 0.0 6.4 0.00 0.00 0.08 55 1008.6
20260506033652 9 257 1.6 6.4 0.00 0.00 0.08 55 1008.3
20260506033546 9 266 0.0 6.4 0.00 0.00 0.08 56 1008.6
20260506033441 9 265 3.2 6.4 0.00 0.00 0.08 55 1008.3
20260506033336 9 287 1.6 6.4 0.00 0.00 0.08 55 1008.3
20260506033229 9 286 1.6 6.4 0.00 0.00 0.08 55 1008.3
20260506033124 9 201 0.0 6.4 0.00 0.00 0.08 55 1008.3
20260506033018 9 235 0.0 6.4 0.00 0.00 0.08 55 1008.3
20260506032913 9 188 1.6 4.8 0.00 0.00 0.08 55 1008.3
20260506032806 9 241 0.0 4.8 0.00 0.00 0.08 55 1008.3
20260506032701 9 276 1.6 4.8 0.00 0.00 0.08 54 1008.3
20260506032634 9 198 3.2 4.8 0.00 0.00 0.08 55 1008.3
20260506032556 9 316 0.0 1.6 0.00 0.00 0.08 56 1008.3
20260506032449 9 319 0.0 1.6 0.00 0.00 0.08 55 1008.3
20260506032344 9 307 0.0 1.6 0.00 0.00 0.08 55 1008.6
20260506032239 9 250 0.0 4.8 0.00 0.00 0.08 55 1008.6
20260506032133 9 232 0.0 4.8 0.00 0.00 0.08 56 1008.3
20260506032027 9 232 0.0 4.8 0.00 0.00 0.08 56 1008.6
20260506031921 9 232 0.0 4.8 0.00 0.00 0.08 54 1008.6
20260506031814 9 230 1.6 4.8 0.00 0.00 0.08 54 1008.3
20260506031710 10 238 0.0 4.8 0.00 0.00 0.08 54 1008.3
20260506031621 10 258 0.0 4.8 0.00 0.00 0.08 55 1008.3
20260506031604 10 259 0.0 4.8 0.00 0.00 0.08 56 1008.3
20260506031459 9 272 0.0 4.8 0.00 0.00 0.08 54 1008.3
20260506031353 9 267 1.6 4.8 0.00 0.00 0.08 54 1008.3
20260506031247 9 283 0.0 4.8 0.00 0.00 0.08 54 1008.3
20260506031142 9 278 0.0 4.8 0.00 0.00 0.08 55 1008.3
20260506031116 9 259 0.0 4.8 0.00 0.00 0.08 55 1008.3
20260506031035 10 255 0.0 4.8 0.00 0.00 0.08 55 1008.3
20260506030942 10 319 0.0 4.8 0.00 0.00 0.08 54 1007.9
20260506030825 10 250 1.6 4.8 0.00 0.00 0.08 54 1008.3
20260506030718 10 193 0.0 4.8 0.00 0.00 0.08 54 1008.3
20260506030612 10 269 0.0 4.8 0.00 0.00 0.08 54 1008.3
20260506030506 10 275 0.0 4.8 0.00 0.00 0.08 54 1008.3
20260506030400 10 311 3.2 4.8 0.00 0.00 0.08 54 1008.3
20260506030254 10 232 0.0 3.2 0.00 0.00 0.08 55 1008.3
20260506030149 10 232 0.0 3.2 0.00 0.00 0.08 54 1008.3
20260506030056 10 223 0.0 3.2 0.00 0.00 0.08 55 1008.3
20260506025937 10 240 0.0 3.2 0.00 0.00 0.08 55 1008.3
20260506025831 10 240 0.0 3.2 0.00 0.00 0.08 54 1007.9
20260506025726 10 259 0.0 3.2 0.00 0.00 0.08 54 1008.6
20260506025619 10 314 1.6 3.2 0.00 0.00 0.08 55 1008.6
20260506025551 10 301 0.0 1.6 0.00 0.00 0.08 55 1008.6
20260506025513 10 36 1.6 1.6 0.00 0.00 0.08 54 1008.3
20260506025407 10 252 0.0 4.8 0.00 0.00 0.08 54 1008.3
20260506025305 10 182 0.0 4.8 0.00 0.00 0.08 54 1008.3
20260506025155 10 274 0.0 4.8 0.00 0.00 0.08 54 1008.3
20260506025050 10 288 0.0 4.8 0.00 0.00 0.08 54 1008.3
20260506024957 10 293 0.0 4.8 0.00 0.00 0.08 54 1008.6
20260506024838 10 233 0.0 4.8 0.00 0.00 0.08 54 1008.6
20260506024734 10 259 0.0 4.8 0.00 0.00 0.08 55 1008.3
20260506024628 10 226 0.0 4.8 0.00 0.00 0.08 56 1008.3
20260506024539 10 226 0.0 4.8 0.00 0.00 0.08 56 1008.3
20260506024522 10 226 0.0 4.8 0.00 0.00 0.08 55 1008.6
20260506024416 10 250 0.0 3.2 0.00 0.00 0.08 54 1008.6
20260506024311 10 244 0.0 3.2 0.00 0.00 0.08 54 1008.6
20260506024218 10 236 0.0 3.2 0.00 0.00 0.08 55 1008.3
20260506024100 10 219 0.0 3.2 0.00 0.00 0.08 54 1008.3
20260506024034 10 240 0.0 3.2 0.00 0.00 0.08 54 1007.9
20260506023954 10 259 1.6 3.2 0.00 0.00 0.08 54 1007.9
20260506023849 10 289 1.6 3.2 0.00 0.00 0.08 54 1008.3
20260506023756 10 248 0.0 3.2 0.00 0.00 0.08 54 1008.3
20260506023637 10 248 0.0 3.2 0.00 0.00 0.08 53 1008.3
20260506023531 10 223 3.2 3.2 0.00 0.00 0.08 53 1008.3
20260506023426 10 210 1.6 4.8 0.00 0.00 0.08 54 1008.3
20260506023321 10 219 0.0 4.8 0.00 0.00 0.08 53 1007.9
20260506023215 10 276 0.0 4.8 0.00 0.00 0.08 54 1008.3
20260506023110 10 293 0.0 4.8 0.00 0.00 0.08 54 1008.3
20260506023021 10 293 0.0 9.7 0.00 0.00 0.08 54 1008.3
20260506023005 10 293 0.0 9.7 0.00 0.00 0.08 54 1008.3
20260506022859 10 302 0.0 9.7 0.00 0.00 0.08 54 1008.3
20260506022753 10 24 0.0 9.7 0.00 0.00 0.08 53 1008.3
20260506022647 10 196 1.6 9.7 0.00 0.00 0.08 53 1008.3
20260506022541 10 87 0.0 9.7 0.00 0.00 0.08 54 1008.3
20260506022514 10 48 1.6 9.7 0.00 0.00 0.08 53 1008.3
20260506022435 10 318 1.6 9.7 0.00 0.00 0.08 53 1008.3
20260506022330 10 227 0.0 9.7 0.00 0.00 0.08 53 1008.3
20260506022224 10 238 0.0 9.7 0.00 0.00 0.08 53 1008.6
20260506022119 10 246 4.8 9.7 0.00 0.00 0.08 52 1008.6
20260506022013 10 263 0.0 4.8 0.00 0.00 0.08 53 1008.6
20260506021908 10 305 0.0 6.4 0.00 0.00 0.08 54 1008.6
20260506021801 10 278 1.6 6.4 0.00 0.00 0.08 52 1008.6
20260506021655 10 193 3.2 6.4 0.00 0.00 0.08 53 1008.3
20260506021549 10 260 1.6 6.4 0.00 0.00 0.08 53 1008.6
20260506021500 10 247 1.6 6.4 0.00 0.00 0.08 54 1008.3
20260506021443 10 264 1.6 6.4 0.00 0.00 0.08 53 1008.3
20260506021337 10 180 1.6 6.4 0.00 0.00 0.08 53 1008.6
20260506021231 10 239 0.0 6.4 0.00 0.00 0.08 53 1008.6
20260506021125 10 145 1.6 6.4 0.00 0.00 0.08 54 1008.3
20260506021020 10 284 4.8 6.4 0.00 0.00 0.08 53 1008.3
20260506020954 10 298 4.8 6.4 0.00 0.00 0.08 54 1008.3
20260506020915 10 226 3.2 6.4 0.00 0.00 0.08 53 1008.3
20260506020809 10 203 0.0 6.4 0.00 0.00 0.08 54 1008.6
20260506020704 10 221 0.0 6.4 0.00 0.00 0.08 53 1008.3
20260506020557 10 206 0.0 6.4 0.00 0.00 0.08 54 1008.3
20260506020452 10 219 0.0 6.4 0.00 0.00 0.08 54 1008.3
20260506020346 10 210 0.0 6.4 0.00 0.00 0.08 53 1008.3
20260506020241 10 245 1.6 6.4 0.00 0.00 0.08 51 1008.3
20260506020135 10 295 4.8 6.4 0.00 0.00 0.08 51 1008.3
20260506020031 10 221 3.2 4.8 0.00 0.00 0.08 52 1008.3
20260506015941 10 229 3.2 12.9 0.00 0.00 0.08 52 1008.3
20260506015924 10 244 1.6 12.9 0.00 0.00 0.08 52 1008.3
20260506015818 10 258 0.0 12.9 0.00 0.00 0.08 53 1007.9
20260506015713 10 232 0.0 12.9 0.00 0.00 0.08 53 1008.3
20260506015607 10 240 0.0 12.9 0.00 0.00 0.08 53 1008.3
20260506015502 10 235 1.6 12.9 0.00 0.00 0.08 52 1007.9
20260506015435 10 299 0.0 12.9 0.00 0.00 0.08 53 1007.9
20260506015356 10 250 0.0 12.9 0.00 0.00 0.08 53 1007.9
20260506015250 10 227 0.0 12.9 0.00 0.00 0.08 52 1007.9
20260506015145 10 250 0.0 12.9 0.00 0.00 0.08 50 1007.9
20260506015039 10 221 4.8 12.9 0.00 0.00 0.08 51 1007.9
20260506014932 10 311 0.0 4.8 0.00 0.00 0.08 52 1007.9
20260506014827 10 224 0.0 4.8 0.00 0.00 0.08 51 1007.9
20260506014724 10 236 1.6 4.8 0.00 0.00 0.08 51 1007.9
20260506014618 10 230 0.0 4.8 0.00 0.00 0.08 51 1007.9
20260506014513 10 270 0.0 4.8 0.00 0.00 0.08 52 1007.9
20260506014425 10 272 0.0 4.8 0.00 0.00 0.08 51 1007.9
20260506014407 10 281 1.6 4.8 0.00 0.00 0.08 52 1007.9
20260506014301 10 171 0.0 4.8 0.00 0.00 0.08 52 1007.9
20260506014156 10 200 0.0 4.8 0.00 0.00 0.08 51 1007.9
20260506014049 10 267 3.2 6.4 0.00 0.00 0.08 51 1007.9
20260506013945 10 299 0.0 9.7 0.00 0.00 0.08 51 1007.9
20260506013918 10 15 0.0 9.7 0.00 0.00 0.08 52 1007.9
20260506013838 10 224 4.8 9.7 0.00 0.00 0.08 51 1007.9
20260506013733 10 85 0.0 9.7 0.00 0.00 0.08 52 1007.6
20260506013627 10 252 0.0 9.7 0.00 0.00 0.08 52 1007.6
20260506013521 10 273 1.6 9.7 0.00 0.00 0.08 51 1007.9
20260506013416 10 262 0.0 9.7 0.00 0.00 0.08 51 1007.9
20260506013309 10 256 0.0 9.7 0.00 0.00 0.08 51 1007.9
20260506013204 10 186 1.6 9.7 0.00 0.00 0.08 52 1007.9
20260506013058 10 298 3.2 9.7 0.00 0.00 0.08 51 1007.9
20260506012953 10 270 1.6 4.8 0.00 0.00 0.08 51 1007.9
20260506012903 10 222 3.2 4.8 0.00 0.00 0.08 50 1007.9
20260506012847 10 268 3.2 4.8 0.00 0.00 0.08 51 1007.9
20260506012741 10 280 3.2 4.8 0.00 0.00 0.08 52 1007.9
20260506012635 10 269 0.0 4.8 0.00 0.00 0.08 52 1007.9
20260506012529 10 246 0.0 4.8 0.00 0.00 0.08 51 1007.6
20260506012424 10 289 1.6 6.4 0.00 0.00 0.08 51 1007.6
20260506012357 10 276 3.2 6.4 0.00 0.00 0.08 51 1007.6
20260506012318 10 206 0.0 6.4 0.00 0.00 0.08 52 1007.9
20260506012213 10 254 0.0 6.4 0.00 0.00 0.08 52 1007.9
20260506012107 10 249 0.0 6.4 0.00 0.00 0.08 51 1007.6
20260506012003 10 226 1.6 6.4 0.00 0.00 0.08 52 1007.6
20260506011855 10 205 0.0 6.4 0.00 0.00 0.08 51 1007.9
20260506011750 11 249 1.6 6.4 0.00 0.00 0.08 50 1007.9
20260506011644 11 253 1.6 6.4 0.00 0.00 0.08 50 1007.9
20260506011539 11 287 1.6 6.4 0.00 0.00 0.08 50 1007.6
20260506011434 11 284 6.4 6.4 0.00 0.00 0.08 50 1007.6
20260506011344 10 272 4.8 6.4 0.00 0.00 0.08 50 1007.6
20260506011328 10 312 1.6 6.4 0.00 0.00 0.08 50 1007.6
20260506011222 10 242 3.2 6.4 0.00 0.00 0.08 50 1007.6
20260506011116 10 262 1.6 6.4 0.00 0.00 0.08 52 1007.9
20260506011022 11 157 1.6 4.8 0.00 0.00 0.08 51 1007.6
20260506010837 11 211 0.0 4.8 0.00 0.00 0.08 52 1007.6
20260506010758 11 235 1.6 4.8 0.00 0.00 0.08 51 1007.9
20260506010653 11 252 3.2 4.8 0.00 0.00 0.08 50 1007.9
20260506010548 11 222 0.0 4.8 0.00 0.00 0.08 50 1007.6
20260506010442 11 264 1.6 9.7 0.00 0.00 0.08 52 1007.9
20260506010336 11 284 1.6 9.7 0.00 0.00 0.08 52 1007.9
20260506010230 11 283 4.8 9.7 0.00 0.00 0.08 51 1007.9
20260506010125 11 242 0.0 9.7 0.00 0.00 0.08 52 1007.6
20260506010019 11 237 1.6 9.7 0.00 0.00 0.08 51 1007.6
20260506005914 11 332 0.0 9.7 0.00 0.00 0.08 51 1007.9
20260506005825 11 228 0.0 11.3 0.00 0.00 0.08 52 1007.6
20260506005808 11 241 0.0 11.3 0.00 0.00 0.08 52 1007.6
20260506005703 11 249 0.0 11.3 0.00 0.00 0.08 52 1007.6
20260506005556 11 274 1.6 11.3 0.00 0.00 0.08 51 1007.9
20260506005451 11 273 6.4 11.3 0.00 0.00 0.08 51 1007.6
20260506005345 11 223 0.0 11.3 0.00 0.00 0.08 52 1007.6
20260506005318 11 245 0.0 11.3 0.00 0.00 0.08 52 1007.6
20260506005239 11 195 0.0 11.3 0.00 0.00 0.08 53 1007.9
20260506005134 11 218 3.2 11.3 0.00 0.00 0.08 53 1007.9
20260506005027 11 297 1.6 11.3 0.00 0.00 0.08 52 1007.9
20260506004921 11 265 8.0 11.3 0.00 0.00 0.08 52 1007.6
20260506004815 11 196 4.8 4.8 0.00 0.00 0.08 54 1007.6
20260506004710 11 289 1.6 4.8 0.00 0.00 0.08 54 1007.6
20260506004605 11 268 0.0 4.8 0.00 0.00 0.08 55 1007.9
20260506004500 11 266 0.0 3.2 0.00 0.00 0.08 55 1007.6
20260506004354 11 273 0.0 3.2 0.00 0.00 0.08 56 1007.6
20260506004306 11 267 0.0 3.2 0.00 0.00 0.08 54 1007.9
20260506004248 11 257 0.0 3.2 0.00 0.00 0.08 55 1007.9
20260506004142 11 265 0.0 3.2 0.00 0.00 0.08 56 1007.6
20260506004036 11 235 0.0 3.2 0.00 0.00 0.08 55 1007.9
20260506003929 11 273 1.6 3.2 0.00 0.00 0.08 56 1007.9
20260506003824 11 266 0.0 3.2 0.00 0.00 0.08 57 1007.6
20260506003757 11 200 0.0 4.8 0.00 0.00 0.08 57 1007.6
20260506003718 11 227 1.6 4.8 0.00 0.00 0.08 56 1007.6
20260506003613 11 251 0.0 4.8 0.00 0.00 0.08 56 1007.6
20260506003508 11 218 0.0 4.8 0.00 0.00 0.08 57 1007.9
20260506003401 11 261 1.6 4.8 0.00 0.00 0.08 56 1007.6
20260506003256 11 228 1.6 4.8 0.00 0.00 0.08 56 1007.9
20260506003150 11 236 0.0 4.8 0.00 0.00 0.08 56 1007.6
20260506003044 11 230 0.0 4.8 0.00 0.00 0.08 55 1007.6
20260506002939 11 231 0.0 4.8 0.00 0.00 0.08 55 1007.6
20260506002834 11 215 3.2 4.8 0.00 0.00 0.08 55 1007.6
20260506002744 11 244 3.2 4.8 0.00 0.00 0.08 55 1007.6
20260506002728 11 256 3.2 4.8 0.00 0.00 0.08 55 1007.6
20260506002622 11 252 3.2 4.8 0.00 0.00 0.08 55 1007.6
20260506002516 11 262 1.6 3.2 0.00 0.00 0.08 56 1007.9
20260506002411 11 222 3.2 3.2 0.00 0.00 0.08 56 1007.6
20260506002306 11 244 3.2 3.2 0.00 0.00 0.08 56 1007.6
20260506002239 11 203 1.6 3.2 0.00 0.00 0.08 58 1007.6
20260506002159 11 208 1.6 3.2 0.00 0.00 0.08 58 1007.6
20260506002053 11 222 0.0 3.2 0.00 0.00 0.08 57 1007.6
20260506001948 11 267 3.2 3.2 0.00 0.00 0.08 56 1007.6
20260506001843 11 202 1.6 6.4 0.00 0.00 0.08 57 1007.6
20260506001737 11 187 1.6 6.4 0.00 0.00 0.08 57 1007.9
20260506001631 11 267 1.6 6.4 0.00 0.00 0.08 58 1007.6
20260506001525 11 251 0.0 6.4 0.00 0.00 0.08 57 1007.6
20260506001419 11 151 0.0 6.4 0.00 0.00 0.08 59 1007.6
20260506001313 11 242 0.0 6.4 0.00 0.00 0.08 57 1007.6
20260506001224 11 141 1.6 6.4 0.00 0.00 0.08 57 1007.6
20260506001208 11 175 1.6 6.4 0.00 0.00 0.08 58 1007.6
20260506001101 11 232 1.6 6.4 0.00 0.00 0.08 58 1007.6
20260506000955 11 213 3.2 6.4 0.00 0.00 0.08 57 1007.6
20260506000849 11 218 3.2 6.4 0.00 0.00 0.08 57 1007.3
20260506000744 11 234 1.6 4.8 0.00 0.00 0.08 58 1007.6
20260506000718 11 254 0.0 6.4 0.00 0.00 0.08 57 1007.6
20260506000638 11 290 1.6 6.4 0.00 0.00 0.08 56 1007.6
20260506000532 11 246 0.0 6.4 0.00 0.00 0.08 57 1007.6
20260506000427 11 221 0.0 6.4 0.00 0.00 0.08 57 1007.3
20260506000322 11 312 0.0 6.4 0.00 0.00 0.08 57 1007.3
20260506000215 11 285 0.0 6.4 0.00 0.00 0.08 57 1007.3
20260506000114 11 276 1.6 6.4 0.00 0.00 0.08 57 1007.3
20260506000002 11 253 1.6 6.4 0.00 0.00 0.08 56 1007.3
20260505235857 11 249 3.2 6.4 0.00 0.00 0.08 57 1007.3
20260505235751 11 266 3.2 6.4 0.00 0.00 0.08 57 1007.6
20260505235702 11 242 1.6 6.4 0.00 0.00 0.08 57 1007.3
20260505235646 11 228 3.2 6.4 0.00 0.00 0.08 57 1007.3
20260505235539 11 223 3.2 6.4 0.00 0.00 0.08 57 1007.3
20260505235432 11 190 4.8 6.4 0.00 0.00 0.08 57 1007.6
20260505235327 11 286 4.8 4.8 0.00 0.00 0.08 60 1007.3
20260505235222 11 224 1.6 4.8 0.00 0.00 0.08 58 1007.3
20260505235155 11 251 3.2 4.8 0.00 0.00 0.08 58 1007.3
20260505235117 11 245 1.6 4.8 0.00 0.00 0.08 59 1007.3
20260505235012 11 221 3.2 6.4 0.00 0.00 0.08 59 1006.9
20260505234905 11 241 1.6 6.4 0.00 0.00 0.08 59 1007.3
20260505234759 11 196 1.6 6.4 0.00 0.00 0.08 58 1007.3
20260505234653 11 232 1.6 6.4 0.00 0.00 0.08 58 1007.3
20260505234547 11 223 4.8 11.3 0.00 0.00 0.08 59 1007.3
20260505234441 11 234 1.6 11.3 0.00 0.00 0.08 60 1007.3
20260505234336 11 221 1.6 11.3 0.00 0.00 0.08 60 1007.3
20260505234230 11 163 0.0 11.3 0.00 0.00 0.08 60 1007.3
20260505234142 11 227 3.2 11.3 0.00 0.00 0.08 59 1007.3
20260505234125 11 250 3.2 11.3 0.00 0.00 0.08 59 1007.3
20260505234019 11 204 1.6 11.3 0.00 0.00 0.08 61 1007.3
20260505233914 11 229 1.6 11.3 0.00 0.00 0.08 62 1007.3
20260505233807 11 292 1.6 11.3 0.00 0.00 0.08 60 1006.9
20260505233703 11 244 3.2 11.3 0.00 0.00 0.08 60 1007.3
20260505233636 11 234 4.8 11.3 0.00 0.00 0.08 59 1007.3
20260505233555 11 244 4.8 9.7 0.00 0.00 0.08 61 1007.3
20260505233345 11 223 3.2 9.7 0.00 0.00 0.08 63 1007.3
20260505233239 11 227 3.2 9.7 0.00 0.00 0.08 63 1006.6
20260505233133 11 221 3.2 9.7 0.00 0.00 0.08 63 1006.9
20260505232922 11 250 4.8 9.7 0.00 0.00 0.08 62 1006.9
20260505232815 11 231 3.2 9.7 0.00 0.00 0.08 63 1007.3
20260505232709 11 252 3.2 9.7 0.00 0.00 0.08 63 1006.9
20260505232621 11 221 1.6 6.4 0.00 0.00 0.08 65 1006.9
20260505232602 11 208 0.0 6.4 0.00 0.00 0.08 65 1006.9
20260505232350 11 233 0.0 6.4 0.00 0.00 0.08 65 1006.9
20260505232245 11 228 0.0 6.4 0.00 0.00 0.08 65 1006.9
20260505232112 11 240 0.0 6.4 0.00 0.00 0.08 64 1006.9
20260505232034 11 217 1.6 6.4 0.00 0.00 0.08 64 1006.9
20260505231928 11 243 0.0 6.4 0.00 0.00 0.08 64 1006.9
20260505231822 11 246 3.2 6.4 0.00 0.00 0.08 63 1006.9
20260505231717 11 287 1.6 6.4 0.00 0.00 0.08 64 1006.9
20260505231609 11 226 4.8 6.4 0.00 0.00 0.08 65 1006.9
20260505231505 11 193 0.0 6.4 0.00 0.00 0.08 66 1006.9
20260505231400 11 165 1.6 6.4 0.00 0.00 0.08 66 1006.9
20260505231253 11 279 3.2 6.4 0.00 0.00 0.08 66 1006.9
20260505231149 11 251 1.6 6.4 0.00 0.00 0.08 66 1006.9
20260505231059 11 259 0.0 6.4 0.00 0.00 0.08 65 1006.9
20260505231043 11 234 0.0 6.4 0.00 0.00 0.08 66 1006.9
20260505230937 11 277 1.6 6.4 0.00 0.00 0.08 66 1006.9
20260505230830 11 229 1.6 9.7 0.00 0.00 0.08 66 1006.9
20260505230725 11 290 3.2 9.7 0.00 0.00 0.08 65 1006.9
20260505230618 11 263 3.2 9.7 0.00 0.00 0.08 65 1006.9
20260505230551 11 259 4.8 9.7 0.00 0.00 0.08 66 1006.9
20260505230513 11 195 1.6 9.7 0.00 0.00 0.08 66 1006.9
20260505230407 11 213 3.2 9.7 0.00 0.00 0.08 67 1007.3
20260505230156 12 239 3.2 9.7 0.00 0.00 0.08 65 1006.9
20260505230101 12 266 0.0 9.7 0.00 0.00 0.08 65 1006.9
20260505225945 12 271 3.2 9.7 0.00 0.00 0.08 65 1007.3
20260505225839 12 250 3.2 9.7 0.00 0.00 0.08 65 1006.9
20260505225732 12 216 3.2 9.7 0.00 0.00 0.08 66 1007.3
20260505225628 12 233 4.8 9.7 0.00 0.00 0.08 64 1007.3
20260505225537 12 264 3.2 9.7 0.00 0.00 0.08 63 1007.3
20260505225519 12 224 1.6 9.7 0.00 0.00 0.08 63 1007.3
20260505225414 12 254 0.0 9.7 0.00 0.00 0.08 64 1007.3
20260505225308 12 221 1.6 9.7 0.00 0.00 0.08 63 1006.9
20260505225203 12 235 3.2 9.7 0.00 0.00 0.08 63 1006.9
20260505225030 12 233 4.8 9.7 0.00 0.00 0.08 62 1006.9
20260505224952 12 193 3.2 4.8 0.00 0.00 0.08 62 1006.9
20260505224846 12 298 3.2 4.8 0.00 0.00 0.08 61 1007.3
20260505224741 12 212 0.0 4.8 0.00 0.00 0.08 60 1007.3
20260505224634 12 254 1.6 4.8 0.00 0.00 0.08 60 1007.3
20260505224529 12 260 1.6 9.7 0.00 0.00 0.08 60 1007.3
20260505224422 12 274 4.8 9.7 0.00 0.00 0.08 60 1007.3
20260505224317 12 187 3.2 9.7 0.00 0.00 0.08 60 1007.6
20260505224212 12 232 3.2 9.7 0.00 0.00 0.08 59 1007.3
20260505224106 12 244 3.2 9.7 0.00 0.00 0.08 60 1007.3
20260505224017 12 229 1.6 9.7 0.00 0.00 0.08 59 1007.3
20260505224001 12 240 0.0 9.7 0.00 0.00 0.08 59 1007.3
20260505223855 12 279 3.2 9.7 0.00 0.00 0.08 59 1007.3
20260505223749 12 270 0.0 9.7 0.00 0.00 0.08 60 1007.3
20260505223643 12 320 1.6 9.7 0.00 0.00 0.08 59 1007.3
20260505223537 12 266 6.4 9.7 0.00 0.00 0.08 58 1007.3
20260505223511 12 290 0.0 9.7 0.00 0.00 0.08 59 1007.3
20260505223431 12 260 6.4 9.7 0.00 0.00 0.08 59 1007.3
20260505223326 12 254 3.2 6.4 0.00 0.00 0.08 59 1006.9
20260505223220 12 264 4.8 9.7 0.00 0.00 0.08 59 1007.3
20260505223115 12 244 1.6 9.7 0.00 0.00 0.08 61 1007.3
20260505223009 12 310 3.2 9.7 0.00 0.00 0.08 60 1007.3
20260505222903 12 197 1.6 9.7 0.00 0.00 0.08 60 1007.3
20260505222810 12 237 0.0 9.7 0.00 0.00 0.08 61 1007.3
20260505222652 12 262 4.8 9.7 0.00 0.00 0.08 59 1007.3
20260505222545 12 282 1.6 9.7 0.00 0.00 0.08 59 1007.3
20260505222456 12 225 6.4 9.7 0.00 0.00 0.08 59 1007.3
20260505222438 12 236 0.0 9.7 0.00 0.00 0.08 59 1007.3
20260505222334 12 274 4.8 11.3 0.00 0.00 0.08 59 1007.3
20260505222227 12 294 3.2 11.3 0.00 0.00 0.08 60 1007.3
20260505222122 12 270 0.0 11.3 0.00 0.00 0.08 59 1007.3
20260505222014 12 250 4.8 11.3 0.00 0.00 0.08 60 1007.3
20260505221948 12 195 3.2 11.3 0.00 0.00 0.08 60 1007.3
20260505221908 12 220 3.2 11.3 0.00 0.00 0.08 60 1007.3
20260505221804 12 286 3.2 11.3 0.00 0.00 0.08 59 1007.3
20260505221654 12 213 4.8 11.3 0.00 0.00 0.08 59 1007.3
20260505221549 12 140 3.2 11.3 0.00 0.00 0.08 59 1007.3
20260505221443 12 259 4.8 11.3 0.00 0.00 0.08 59 1006.9
20260505221337 12 214 1.6 11.3 0.00 0.00 0.08 59 1007.3
20260505221232 12 231 4.8 11.3 0.00 0.00 0.08 60 1007.3
20260505221125 12 260 4.8 12.9 0.00 0.00 0.08 59 1007.3
20260505221032 12 265 3.2 12.9 0.00 0.00 0.08 59 1007.3
20260505220931 12 315 0.0 12.9 0.00 0.00 0.08 62 1007.3
20260505220914 12 249 0.0 12.9 0.00 0.00 0.08 60 1007.3
20260505220810 12 152 4.8 12.9 0.00 0.00 0.08 61 1007.3
20260505220801 12 208 6.4 14.5 0.00 0.00 0.08 68 1007.3
20260505220757 12 136 4.8 9.7 0.00 0.00 0.08 73 1007.3
20260505220752 12 255 6.4 9.7 0.00 0.00 0.08 66 1007.3
20260505220748 12 265 0.0 12.9 0.00 0.00 0.08 62 1007.3
20260505220742 12 269 1.6 12.9 0.00 0.00 0.08 61 1006.9
20260505220733 12 189 6.4 12.9 0.00 0.00 0.08 61 1007.3
20260505220724 12 280 1.6 12.9 0.00 0.00 0.08 61 1007.3
20260505220502 12 258 3.2 12.9 0.00 0.00 0.08 62 1007.3
20260505220453 12 263 3.2 12.9 0.00 0.00 0.08 63 1007.3
20260505220225 12 284 4.8 11.3 0.00 0.00 0.08 62 1007.3
20260505220216 12 356 4.8 9.7 0.00 0.00 0.08 64 1007.3
20260505220205 12 241 1.6 9.7 0.00 0.00 0.08 66 1007.3
20260505215941 12 332 1.6 9.7 0.00 0.00 0.08 65 1007.3
20260505215718 12 186 4.8 9.7 0.00 0.00 0.08 66 1007.3
20260505215708 12 250 3.2 9.7 0.00 0.00 0.08 66 1007.3
20260505215659 12 226 1.6 9.7 0.00 0.00 0.08 66 1007.3
20260505215433 12 247 1.6 9.7 0.00 0.00 0.08 68 1007.3
20260505215424 12 333 3.2 9.7 0.00 0.00 0.08 68 1007.3
20260505215204 12 225 3.2 9.7 0.00 0.00 0.08 67 1007.3
20260505215155 12 239 4.8 9.7 0.00 0.00 0.08 68 1007.3
20260505214936 12 179 1.6 11.3 0.00 0.00 0.08 68 1007.3
20260505214925 12 319 1.6 12.9 0.00 0.00 0.08 68 1007.3
20260505214920 12 219 3.2 12.9 0.00 0.00 0.08 68 1007.3
20260505214911 12 1 0.0 14.5 0.00 0.00 0.08 69 1007.3
20260505214649 12 244 0.0 14.5 0.00 0.00 0.08 68 1007.3
20260505214639 12 286 1.6 14.5 0.00 0.00 0.08 68 1007.3
20260505214628 12 208 6.4 14.5 0.00 0.00 0.08 68 1007.3
20260505214408 12 236 3.2 14.5 0.00 0.00 0.08 68 1007.3
20260505214359 12 256 6.4 14.5 0.00 0.00 0.08 68 1007.3
20260505214135 12 278 3.2 14.5 0.00 0.00 0.08 68 1007.3
20260505214126 12 203 8.0 14.5 0.00 0.00 0.08 69 1007.3
20260505213856 12 236 8.0 14.5 0.00 0.00 0.08 68 1007.3
20260505213847 12 241 6.4 9.7 0.00 0.00 0.08 70 1007.3
20260505213624 12 239 4.8 9.7 0.00 0.00 0.08 71 1006.9
20260505213614 12 232 3.2 9.7 0.00 0.00 0.08 72 1007.3
20260505213605 12 205 4.8 9.7 0.00 0.00 0.08 72 1007.3
20260505213307 12 320 4.8 9.7 0.00 0.00 0.08 73 1006.9
20260505213202 12 222 3.2 4.8 0.00 0.00 0.08 74 1007.3
20260505213055 12 222 3.2 4.8 0.00 0.00 0.08 74 1006.9
20260505213003 12 221 4.8 4.8 0.00 0.00 0.08 74 1006.9
20260505212843 12 227 1.6 4.8 0.00 0.00 0.08 75 1007.3
20260505212738 12 228 1.6 4.8 0.00 0.00 0.08 75 1007.3
20260505212633 12 188 0.0 4.8 0.00 0.00 0.08 75 1006.9
20260505212526 12 245 3.2 4.8 0.00 0.00 0.08 75 1006.9
20260505212421 12 246 3.2 4.8 0.00 0.00 0.08 75 1006.9
20260505212333 12 240 1.6 4.8 0.00 0.00 0.08 76 1007.3
20260505212315 12 273 1.6 4.8 0.00 0.00 0.08 76 1007.3
20260505212209 12 266 3.2 4.8 0.00 0.00 0.08 76 1007.3
20260505212103 12 249 1.6 4.8 0.00 0.00 0.08 76 1006.9
20260505211958 11 250 0.0 4.8 0.00 0.00 0.08 76 1006.9
20260505211852 11 230 1.6 4.8 0.00 0.00 0.08 77 1007.3
20260505211825 11 213 1.6 4.8 0.00 0.00 0.08 77 1007.3
20260505211747 11 240 0.0 6.4 0.00 0.00 0.08 77 1007.3
20260505211653 11 166 3.2 6.4 0.00 0.00 0.08 76 1007.3
20260505211535 11 153 4.8 6.4 0.00 0.00 0.08 77 1007.3
20260505211429 11 229 1.6 9.7 0.00 0.00 0.08 78 1007.3
20260505211322 11 244 0.0 9.7 0.00 0.00 0.08 77 1007.3
20260505211217 11 231 1.6 9.7 0.00 0.00 0.08 77 1007.3
20260505211124 11 202 0.0 9.7 0.00 0.00 0.08 78 1007.3
20260505211005 11 225 1.6 9.7 0.00 0.00 0.08 78 1007.3
20260505210859 11 240 1.6 9.7 0.00 0.00 0.08 77 1007.3
20260505210810 11 207 3.2 12.9 0.00 0.00 0.08 77 1007.3
20260505210753 11 236 6.4 12.9 0.00 0.00 0.08 77 1007.3
20260505210648 11 213 3.2 12.9 0.00 0.00 0.08 78 1007.3
20260505210542 11 260 4.8 12.9 0.00 0.00 0.08 77 1007.3
20260505210437 11 191 6.4 12.9 0.00 0.00 0.08 77 1007.3
20260505210331 11 241 3.2 12.9 0.00 0.00 0.08 77 1007.3
20260505210304 11 250 3.2 12.9 0.00 0.00 0.08 77 1007.3
20260505210225 11 233 6.4 12.9 0.00 0.00 0.08 77 1006.9
20260505210120 11 224 4.8 12.9 0.00 0.00 0.08 77 1007.3
20260505210014 11 250 3.2 12.9 0.00 0.00 0.08 76 1007.3
20260505205909 11 219 4.8 12.9 0.00 0.00 0.08 78 1007.3
20260505205802 11 254 1.6 12.9 0.00 0.00 0.08 77 1007.3
20260505205657 11 237 4.8 12.9 0.00 0.00 0.08 77 1007.3
20260505205551 11 194 11.3 12.9 0.00 0.00 0.08 76 1006.9
20260505205446 11 164 8.0 11.3 0.00 0.00 0.08 76 1007.3
20260505205340 11 244 4.8 11.3 0.00 0.00 0.08 76 1007.3
20260505205251 11 134 6.4 11.3 0.00 0.00 0.08 76 1007.3
20260505205235 11 243 4.8 11.3 0.00 0.00 0.08 77 1007.3
20260505205130 11 222 6.4 11.3 0.00 0.00 0.08 77 1007.6
20260505205023 11 200 6.4 11.3 0.00 0.00 0.08 76 1007.3
20260505204919 11 207 6.4 11.3 0.00 0.00 0.08 76 1007.3
20260505204813 11 223 6.4 11.3 0.00 0.00 0.08 76 1007.3
20260505204746 11 201 8.0 11.3 0.00 0.00 0.08 76 1007.3
20260505204707 11 196 3.2 12.9 0.00 0.00 0.08 77 1007.3
20260505204602 11 224 4.8 12.9 0.00 0.00 0.08 77 1007.3
20260505204457 11 203 3.2 12.9 0.00 0.00 0.08 76 1007.3
20260505204352 11 225 6.4 12.9 0.00 0.00 0.08 77 1007.3
20260505204247 11 218 3.2 12.9 0.00 0.00 0.08 77 1007.3
20260505204140 11 214 1.6 12.9 0.00 0.00 0.08 77 1007.3
20260505204035 11 219 4.8 12.9 0.00 0.00 0.08 77 1007.3
20260505204009 11 174 3.2 11.3 0.00 0.00 0.08 77 1007.3
20260505204005 11 215 3.2 12.9 0.00 0.00 0.08 77 1006.9
20260505203956 11 214 6.4 12.9 0.00 0.00 0.08 77 1007.3
20260505203717 11 156 3.2 11.3 0.00 0.00 0.08 76 1007.3
20260505203612 11 181 3.2 11.3 0.00 0.00 0.08 76 1007.3
20260505203507 11 168 3.2 11.3 0.00 0.00 0.08 76 1007.3
20260505203401 11 158 1.6 11.3 0.00 0.00 0.08 77 1007.3
20260505203256 11 193 1.6 11.3 0.00 0.00 0.08 77 1007.3
20260505203230 11 223 4.8 11.3 0.00 0.00 0.08 76 1007.3
20260505203151 11 255 8.0 11.3 0.00 0.00 0.08 77 1007.3
20260505203043 11 177 1.6 9.7 0.00 0.00 0.08 77 1007.3
20260505202938 11 228 4.8 9.7 0.00 0.00 0.08 76 1007.3
20260505202845 11 240 3.2 9.7 0.00 0.00 0.08 77 1007.3
20260505202727 11 193 1.6 12.9 0.00 0.00 0.08 77 1007.3
20260505202622 11 127 0.0 12.9 0.00 0.00 0.08 77 1007.3
20260505202516 11 242 3.2 12.9 0.00 0.00 0.08 77 1007.3
20260505202410 11 240 3.2 12.9 0.00 0.00 0.08 78 1007.3
20260505202307 11 218 4.8 12.9 0.00 0.00 0.08 78 1007.3
20260505202217 11 202 3.2 12.9 0.00 0.00 0.08 78 1006.9
20260505202200 11 220 1.6 12.9 0.00 0.00 0.08 78 1006.9
20260505202054 11 205 4.8 12.9 0.00 0.00 0.08 78 1006.9
20260505201949 11 97 4.8 12.9 0.00 0.00 0.08 78 1006.9
20260505201843 11 199 6.4 14.5 0.00 0.00 0.08 78 1006.9
20260505201738 11 183 4.8 14.5 0.00 0.00 0.08 78 1007.3
20260505201711 11 226 6.4 14.5 0.00 0.00 0.08 78 1007.3
20260505201632 11 189 9.7 14.5 0.00 0.00 0.08 78 1007.3
20260505201526 11 216 3.2 16.1 0.00 0.00 0.08 79 1007.3
20260505201421 11 220 6.4 16.1 0.00 0.00 0.08 79 1007.3
20260505201316 11 237 6.4 16.1 0.00 0.00 0.08 79 1007.3
20260505201210 11 164 1.6 16.1 0.00 0.00 0.08 79 1007.3
20260505201104 11 159 6.4 16.1 0.00 0.00 0.08 79 1007.3
20260505200959 11 210 6.4 16.1 0.00 0.00 0.08 78 1007.3
20260505200853 11 228 4.8 16.1 0.00 0.00 0.08 79 1007.6
20260505200748 11 211 8.0 16.1 0.00 0.00 0.08 79 1007.3
20260505200659 11 213 6.4 16.1 0.00 0.00 0.08 79 1007.3
20260505200641 11 226 4.8 16.1 0.00 0.00 0.08 79 1007.3
20260505200536 11 222 3.2 12.9 0.00 0.00 0.08 79 1007.3
20260505200430 11 233 3.2 12.9 0.00 0.00 0.08 79 1007.3
20260505200325 11 222 3.2 12.9 0.00 0.00 0.08 80 1007.3
20260505200219 11 212 1.6 12.9 0.00 0.00 0.08 80 1006.9
20260505200153 11 215 4.8 12.9 0.00 0.00 0.08 80 1006.9
20260505200116 11 202 3.2 12.9 0.00 0.00 0.08 80 1007.3
20260505200009 11 211 9.7 12.9 0.00 0.00 0.08 79 1007.3
20260505195903 11 196 3.2 12.9 0.00 0.00 0.08 79 1007.3
20260505195756 11 208 1.6 12.9 0.00 0.00 0.08 80 1007.3
20260505195651 11 165 3.2 12.9 0.00 0.00 0.08 80 1007.3
20260505195546 11 119 3.2 12.9 0.00 0.00 0.08 80 1007.3
20260505195441 11 146 3.2 12.9 0.00 0.00 0.08 80 1007.3
20260505195336 11 193 4.8 12.9 0.00 0.00 0.08 80 1007.3
20260505195230 11 206 8.0 14.5 0.00 0.00 0.08 80 1007.3
20260505195142 11 191 6.4 14.5 0.00 0.00 0.08 79 1007.3
20260505195124 11 171 9.7 14.5 0.00 0.00 0.08 79 1007.3
20260505195019 11 206 3.2 14.5 0.00 0.00 0.08 80 1007.3
20260505194913 11 173 4.8 14.5 0.00 0.00 0.08 80 1007.3
20260505194808 11 193 3.2 14.5 0.00 0.00 0.08 80 1007.3
20260505194702 11 205 4.8 14.5 0.00 0.00 0.08 80 1007.3
20260505194636 11 205 6.4 14.5 0.00 0.00 0.08 80 1007.3
20260505194557 11 209 4.8 14.5 0.00 0.00 0.08 80 1007.3
20260505194452 11 206 6.4 14.5 0.00 0.00 0.08 80 1007.3
20260505194347 11 213 9.7 14.5 0.00 0.00 0.08 79 1007.3
20260505194241 11 250 8.0 14.5 0.00 0.00 0.08 80 1007.3
20260505194135 11 228 6.4 14.5 0.00 0.00 0.08 80 1007.3
20260505194031 11 209 6.4 14.5 0.00 0.00 0.08 80 1007.3
20260505193925 11 221 12.9 14.5 0.00 0.00 0.08 80 1007.3
20260505193819 11 237 6.4 14.5 0.00 0.00 0.08 80 1007.3
20260505193714 11 115 1.6 14.5 0.00 0.00 0.08 81 1007.3
20260505193625 11 236 3.2 14.5 0.00 0.00 0.08 81 1007.3
20260505193610 11 165 1.6 14.5 0.00 0.00 0.08 81 1007.3
20260505193500 11 186 4.8 14.5 0.00 0.00 0.08 81 1007.3
20260505193356 11 179 0.0 14.5 0.00 0.00 0.08 81 1007.3
20260505193249 11 215 4.8 14.5 0.00 0.00 0.08 81 1007.3
20260505193144 11 180 6.4 14.5 0.00 0.00 0.08 81 1007.3
20260505193118 11 194 4.8 14.5 0.00 0.00 0.08 81 1007.6
20260505193037 11 224 8.0 14.5 0.00 0.00 0.08 81 1007.6
20260505192932 11 179 4.8 11.3 0.00 0.00 0.08 81 1007.3
20260505192827 11 157 3.2 12.9 0.00 0.00 0.08 81 1007.3
20260505192721 11 213 3.2 14.5 0.00 0.00 0.08 81 1007.3
20260505192615 11 117 1.6 14.5 0.00 0.00 0.08 81 1007.3
20260505192511 11 201 6.4 14.5 0.00 0.00 0.08 81 1007.6
20260505192405 11 223 1.6 14.5 0.00 0.00 0.08 81 1007.3
20260505192259 11 213 6.4 14.5 0.00 0.00 0.08 81 1007.3
20260505192154 11 212 6.4 14.5 0.00 0.00 0.08 81 1007.6
20260505192106 11 198 8.0 14.5 0.00 0.00 0.08 80 1007.3
20260505192049 11 210 9.7 14.5 0.00 0.00 0.08 80 1007.3
20260505191943 11 216 3.2 14.5 0.00 0.00 0.08 80 1007.3
20260505191838 11 186 4.8 14.5 0.00 0.00 0.08 80 1007.6
20260505191732 11 196 3.2 11.3 0.00 0.00 0.08 81 1007.3
20260505191627 11 212 8.0 11.3 0.00 0.00 0.08 80 1007.3
20260505191600 11 175 6.4 11.3 0.00 0.00 0.08 80 1007.3
20260505191523 11 173 4.8 11.3 0.00 0.00 0.08 80 1007.3
20260505191415 11 213 3.2 11.3 0.00 0.00 0.08 80 1007.3
20260505191311 11 242 6.4 11.3 0.00 0.00 0.08 80 1007.6
20260505191217 11 153 1.6 11.3 0.00 0.00 0.08 80 1007.3
20260505191059 11 187 4.8 11.3 0.00 0.00 0.08 80 1007.6
20260505190954 11 185 3.2 6.4 0.00 0.00 0.08 80 1007.6
20260505190849 11 218 1.6 6.4 0.00 0.00 0.08 80 1007.3
20260505190744 11 209 3.2 6.4 0.00 0.00 0.08 80 1007.6
20260505190638 11 232 4.8 9.7 0.00 0.00 0.08 80 1007.6
20260505190547 11 185 4.8 9.7 0.00 0.00 0.08 80 1007.6
20260505190530 11 198 6.4 9.7 0.00 0.00 0.08 80 1007.6
20260505190425 11 209 1.6 11.3 0.00 0.00 0.08 80 1007.6
20260505190319 11 184 1.6 11.3 0.00 0.00 0.08 81 1007.6
20260505190214 11 170 1.6 11.3 0.00 0.00 0.08 80 1007.3
20260505190108 11 114 1.6 12.9 0.00 0.00 0.08 81 1007.3
20260505190042 11 149 1.6 12.9 0.00 0.00 0.08 81 1007.3
20260505190004 11 206 3.2 12.9 0.00 0.00 0.08 81 1007.3
20260505185857 11 185 3.2 12.9 0.00 0.00 0.08 81 1007.3
20260505185752 11 201 6.4 12.9 0.00 0.00 0.08 81 1007.3
20260505185647 11 195 3.2 12.9 0.00 0.00 0.08 81 1007.3
20260505185540 11 184 8.0 14.5 0.00 0.00 0.08 81 1007.3
20260505185435 11 199 4.8 14.5 0.00 0.00 0.08 81 1007.3
20260505185331 11 220 4.8 14.5 0.00 0.00 0.08 81 1007.3
20260505185225 11 236 6.4 14.5 0.00 0.00 0.08 81 1007.6
20260505185120 11 181 4.8 14.5 0.00 0.00 0.08 81 1007.3
20260505185032 11 172 6.4 14.5 0.00 0.00 0.08 81 1007.6
20260505185014 11 168 6.4 14.5 0.00 0.00 0.08 81 1007.6
20260505184909 11 205 6.4 14.5 0.00 0.00 0.08 81 1007.6
20260505184804 11 188 8.0 14.5 0.00 0.00 0.08 80 1007.3
20260505184711 11 203 11.3 14.5 0.00 0.00 0.08 80 1007.3
20260505184553 11 196 3.2 14.5 0.00 0.00 0.08 81 1007.3
20260505184525 11 189 1.6 14.5 0.00 0.00 0.08 81 1007.3
20260505184447 11 222 4.8 14.5 0.00 0.00 0.08 81 1007.3
20260505184342 11 185 9.7 14.5 0.00 0.00 0.08 81 1007.3
20260505184236 11 161 4.8 14.5 0.00 0.00 0.08 81 1007.3
20260505184131 11 176 12.9 14.5 0.00 0.00 0.08 81 1006.9
20260505184025 11 196 6.4 14.5 0.00 0.00 0.08 81 1007.3
20260505183919 11 153 4.8 14.5 0.00 0.00 0.08 81 1007.3
20260505183815 11 209 6.4 14.5 0.00 0.00 0.08 80 1007.3
20260505183709 11 219 6.4 14.5 0.00 0.00 0.08 80 1007.3
20260505183604 11 231 3.2 14.5 0.00 0.00 0.08 80 1007.3
20260505183515 11 171 11.3 14.5 0.00 0.00 0.08 80 1007.3
20260505183458 11 187 3.2 11.3 0.00 0.00 0.08 80 1007.3
20260505183353 12 151 8.0 11.3 0.00 0.00 0.08 79 1006.9
20260505183247 12 226 4.8 11.3 0.00 0.00 0.08 79 1007.3
20260505183142 12 129 0.0 11.3 0.00 0.00 0.08 78 1007.3
20260505183036 12 165 6.4 11.3 0.00 0.00 0.08 77 1006.9
20260505183008 12 169 3.2 11.3 0.00 0.00 0.08 77 1006.9
20260505182930 12 222 3.2 11.3 0.00 0.00 0.08 78 1006.9
20260505182825 12 132 1.6 11.3 0.00 0.00 0.08 78 1006.9
20260505182719 12 182 6.4 11.3 0.00 0.00 0.08 77 1006.9
20260505182613 12 211 6.4 11.3 0.00 0.00 0.08 77 1006.9
20260505182509 12 232 4.8 11.3 0.00 0.00 0.08 77 1006.9
20260505182403 12 181 4.8 12.9 0.00 0.00 0.08 77 1006.9
20260505182258 12 212 6.4 14.5 0.00 0.00 0.08 76 1006.9
20260505182152 12 196 4.8 14.5 0.00 0.00 0.08 75 1006.9
20260505182047 12 208 8.0 14.5 0.00 0.00 0.08 74 1006.9
20260505181958 12 206 8.0 14.5 0.00 0.00 0.08 73 1006.9
20260505181941 12 204 4.8 14.5 0.00 0.00 0.08 73 1006.9
20260505181836 12 205 4.8 14.5 0.00 0.00 0.08 73 1006.9
20260505181731 12 221 3.2 14.5 0.00 0.00 0.08 73 1006.6
20260505181624 12 218 1.6 14.5 0.00 0.00 0.08 73 1006.9
20260505181530 12 201 4.8 14.5 0.00 0.00 0.08 73 1006.9
20260505181451 12 255 3.2 14.5 0.00 0.00 0.08 72 1006.9
20260505181412 12 195 9.7 14.5 0.00 0.00 0.08 73 1006.9
20260505181306 12 210 4.8 11.3 0.00 0.00 0.08 73 1006.9
20260505181201 12 206 8.0 11.3 0.00 0.00 0.08 73 1006.9
20260505181056 12 229 4.8 9.7 0.00 0.00 0.08 73 1006.9
20260505180950 12 177 1.6 11.3 0.00 0.00 0.08 74 1006.9
20260505180844 12 125 1.6 11.3 0.00 0.00 0.08 73 1006.9
20260505180739 12 247 0.0 11.3 0.00 0.00 0.08 74 1006.9
20260505180634 12 273 1.6 11.3 0.00 0.00 0.08 75 1006.9
20260505180528 12 211 1.6 11.3 0.00 0.00 0.08 74 1006.9
20260505180441 12 226 0.0 11.3 0.00 0.00 0.08 74 1006.9
20260505180423 12 194 0.0 11.3 0.00 0.00 0.08 74 1006.6
20260505180317 12 193 6.4 11.3 0.00 0.00 0.08 74 1006.9
20260505180212 12 272 6.4 11.3 0.00 0.00 0.08 75 1006.6
20260505180118 12 248 3.2 11.3 0.00 0.00 0.08 74 1006.6
20260505175935 12 171 4.8 9.7 0.00 0.00 0.08 74 1006.6
20260505175856 11 207 4.8 9.7 0.00 0.00 0.08 75 1006.6
20260505175750 11 187 3.2 9.7 0.00 0.00 0.08 74 1006.6
20260505175645 11 228 3.2 9.7 0.00 0.00 0.08 74 1006.9
20260505175539 11 233 4.8 4.8 0.00 0.00 0.08 76 1006.6
20260505175433 -17 0.0 0.0 0.00 0.00 0.08
20260505174651 11 249 3.2 14.5 0.00 0.10 0.08 76 1006.6
20260505174545 11 238 4.8 14.5 0.00 0.10 0.08 76 1006.6
20260505174518 11 216 4.8 14.5 0.00 0.10 0.08 77 1006.6
20260505174439 11 227 1.6 14.5 0.00 0.10 0.08 76 1006.9
20260505174333 11 209 6.4 14.5 0.00 0.10 0.08 76 1006.9
20260505174228 11 258 6.4 14.5 0.00 0.10 0.08 77 1006.6
20260505174122 11 209 6.4 14.5 0.00 0.10 0.08 75 1006.6
20260505174015 11 249 0.0 14.5 0.00 0.10 0.08 75 1006.6
20260505173909 11 177 4.8 14.5 0.00 0.10 0.08 75 1006.6
20260505173804 11 218 3.2 16.1 0.03 0.10 0.08 76 1006.6
20260505173658 11 228 0.0 16.1 0.03 0.10 0.08 75 1006.9
20260505173552 11 231 6.4 16.1 0.03 0.10 0.08 77 1006.9
20260505173504 11 171 1.6 16.1 0.03 0.10 0.08 75 1006.6
20260505173447 11 210 4.8 16.1 0.03 0.10 0.08 75 1006.6
20260505173342 11 262 6.4 16.1 0.03 0.10 0.08 75 1006.6
20260505173236 11 217 6.4 16.1 0.03 0.10 0.08 75 1006.6
20260505173130 11 186 8.0 16.1 0.03 0.10 0.08 75 1006.6
20260505173024 12 225 6.4 16.1 0.03 0.10 0.08 76 1006.1
20260505172957 12 229 6.4 16.1 0.03 0.10 0.08 75 1006.1
20260505172918 12 221 11.3 16.1 0.03 0.10 0.08 75 1006.1
20260505172813 12 277 6.4 12.9 0.03 0.10 0.08 77 1006.1
20260505172735 11 344 0.0 4.8 0.00 0.05 0.03 79 1007.3
20260505172730 10 182 4.8 11.3 0.00 0.05 0.03 82 1006.9
20260505172726 11 218 4.8 4.8 0.00 0.05 0.03 80 1007.3
20260505172722 10 191 1.6 12.9 0.05 0.10 0.08 86 1006.9
20260505172718 10 206 11.3 14.5 0.05 0.10 0.08 84 1006.9
20260505172714 11 195 0.0 11.3 0.05 0.10 0.08 82 1006.1
20260505172710 11 263 4.8 12.9 0.03 0.10 0.08 78 1006.1
20260505172700 11 216 1.6 9.7 0.05 0.10 0.08 85 1006.6
20260505172656 10 198 1.6 12.9 0.05 0.10 0.08 86 1006.9
20260505172652 11 221 6.4 12.9 0.03 0.10 0.08 78 1006.6
20260505172637 11 248 6.4 12.9 0.03 0.10 0.08 78 1006.1
20260505172417 11 206 6.4 12.9 0.05 0.10 0.08 79 1006.6
20260505172408 11 154 4.8 11.3 0.05 0.10 0.08 79 1006.6
20260505172359 11 233 6.4 11.3 0.05 0.10 0.08 80 1006.6
20260505172350 11 6 3.2 11.3 0.05 0.10 0.08 82 1006.1
20260505172125 11 216 1.6 11.3 0.05 0.10 0.08 82 1006.6
20260505171903 11 173 8.0 11.3 0.05 0.10 0.08 82 1006.6
20260505171859 11 253 4.8 11.3 0.05 0.10 0.08 83 1006.6
20260505171850 11 193 4.8 11.3 0.05 0.10 0.08 83 1006.6
20260505171842 11 199 6.4 11.3 0.05 0.10 0.08 83 1006.9
20260505171833 11 245 6.4 11.3 0.05 0.10 0.08 83 1006.6
20260505171608 11 275 6.4 11.3 0.05 0.10 0.08 84 1006.9
20260505171343 11 206 8.0 11.3 0.05 0.10 0.08 83 1006.9
20260505171334 11 221 6.4 11.3 0.05 0.10 0.08 84 1006.9
20260505171325 11 240 6.4 9.7 0.05 0.10 0.08 85 1006.6
20260505171314 11 216 1.6 9.7 0.05 0.10 0.08 85 1006.6
20260505170835 11 281 4.8 9.7 0.05 0.10 0.08 85 1006.6
20260505170826 11 177 3.2 9.7 0.05 0.10 0.08 86 1006.6
20260505170817 10 266 1.6 12.9 0.05 0.10 0.08 86 1006.6
20260505170808 10 221 3.2 12.9 0.05 0.10 0.08 86 1006.9
20260505170543 10 223 1.6 12.9 0.05 0.10 0.08 86 1006.9
20260505170319 10 253 3.2 12.9 0.05 0.10 0.08 86 1006.9
20260505170311 10 228 3.2 12.9 0.05 0.10 0.08 85 1006.9
20260505170302 10 290 3.2 12.9 0.05 0.10 0.08 86 1006.9
20260505170240 10 181 3.2 12.9 0.05 0.10 0.08 86 1006.9
20260505170015 10 186 6.4 14.5 0.05 0.10 0.08 85 1006.9
20260505165754 10 211 6.4 14.5 0.05 0.10 0.08 85 1006.9
20260505165745 10 187 9.7 14.5 0.05 0.10 0.08 86 1006.6
20260505165736 10 201 6.4 14.5 0.05 0.10 0.08 85 1006.6
20260505165506 10 193 3.2 14.5 0.05 0.10 0.08 85 1006.9
20260505165458 10 208 6.4 14.5 0.05 0.10 0.08 85 1006.9
20260505165238 10 197 8.0 14.5 0.05 0.10 0.08 84 1006.9
20260505165229 10 244 4.8 14.5 0.05 0.10 0.08 85 1006.9
20260505165220 10 233 8.0 14.5 0.05 0.10 0.08 84 1006.9
20260505164959 10 193 11.3 14.5 0.05 0.10 0.08 85 1006.9
20260505164950 10 264 4.8 14.5 0.05 0.10 0.08 85 1006.9
20260505164730 10 195 4.8 12.9 0.05 0.10 0.08 85 1006.9
20260505164726 10 174 3.2 9.7 0.05 0.10 0.08 86 1007.3
20260505164718 10 221 4.8 9.7 0.05 0.10 0.08 85 1007.3
20260505164709 10 230 3.2 9.7 0.05 0.10 0.08 85 1006.9
20260505164443 10 167 4.8 12.9 0.05 0.10 0.08 85 1006.9
20260505164222 10 197 3.2 12.9 0.05 0.10 0.08 85 1007.3
20260505164213 10 214 6.4 12.9 0.05 0.10 0.08 84 1007.3
20260505164204 10 198 6.4 12.9 0.05 0.10 0.08 84 1006.9
20260505163934 10 203 1.6 12.9 0.03 0.08 0.05 85 1006.9
20260505163926 10 231 3.2 12.9 0.03 0.08 0.05 85 1006.9
20260505163706 10 239 4.8 12.9 0.03 0.08 0.05 83 1006.9
20260505163657 10 262 4.8 12.9 0.03 0.08 0.05 82 1006.9
20260505163438 10 226 8.0 12.9 0.03 0.08 0.05 83 1006.9
20260505163427 10 193 3.2 12.9 0.03 0.08 0.05 82 1006.9
20260505163423 10 277 6.4 12.9 0.03 0.08 0.05 82 1006.9
20260505163414 10 230 6.4 9.7 0.03 0.08 0.05 82 1007.3
20260505163154 10 216 3.2 9.7 0.03 0.08 0.05 83 1006.9
20260505163145 10 238 1.6 9.7 0.03 0.08 0.05 82 1006.9
20260505162925 10 191 0.0 9.7 0.03 0.08 0.05 82 1007.3
20260505162914 10 197 3.2 9.7 0.03 0.08 0.05 81 1007.3
20260505162910 10 312 3.2 9.7 0.03 0.08 0.05 81 1006.9
20260505162901 10 213 3.2 11.3 0.03 0.08 0.05 82 1006.9
20260505162638 10 203 1.6 11.3 0.03 0.08 0.05 81 1006.9
20260505162629 10 225 4.8 11.3 0.00 0.05 0.05 80 1006.9
20260505162618 10 182 4.8 11.3 0.00 0.05 0.03 82 1006.9
20260505162354 10 286 1.6 11.3 0.00 0.05 0.03 81 1006.9
20260505162129 11 240 3.2 11.3 0.00 0.05 0.03 80 1006.9
20260505162119 11 237 6.4 11.3 0.00 0.05 0.03 79 1006.9
20260505162110 11 257 4.8 11.3 0.00 0.05 0.03 79 1007.3
20260505161844 11 222 1.6 11.3 0.00 0.05 0.03 79 1007.3
20260505161840 11 260 4.8 11.3 0.00 0.05 0.03 79 1007.3
20260505161832 11 193 3.2 6.4 0.00 0.05 0.03 78 1007.3
20260505161607 11 153 0.0 6.4 0.00 0.05 0.03 80 1006.9
20260505161558 11 241 4.8 6.4 0.00 0.05 0.03 80 1006.9
20260505161549 11 216 3.2 4.8 0.00 0.05 0.03 80 1007.3
20260505161328 11 243 3.2 4.8 0.00 0.05 0.03 78 1007.3
20260505161319 11 303 0.0 4.8 0.00 0.05 0.03 79 1007.3
20260505161056 11 282 0.0 4.8 0.00 0.05 0.03 79 1007.3
20260505161046 11 311 1.6 4.8 0.00 0.05 0.03 78 1007.3
20260505161036 11 344 0.0 4.8 0.00 0.05 0.03 79 1007.3
20260505160715 11 4 0.0 4.8 0.00 0.05 0.03 78 1007.3
20260505160610 11 350 1.6 6.4 0.00 0.05 0.03 79 1007.3
20260505160545 11 272 3.2 12.9 0.00 0.05 0.03 77 1006.9
20260505160539 11 214 1.6 9.7 0.00 0.05 0.03 79 1007.3
20260505160530 11 318 1.6 12.9 0.00 0.05 0.03 78 1006.9
20260505160253 11 266 3.2 12.9 0.00 0.05 0.03 77 1006.9
20260505160148 11 268 3.2 12.9 0.00 0.05 0.03 78 1006.9
20260505153317 12 259 1.6 9.7 0.00 0.05 0.03 68 1006.6
20260505153211 12 224 3.2 9.7 0.00 0.05 0.03 69 1006.6
20260505153119 12 232 4.8 9.7 0.00 0.05 0.03 69 1006.1
20260505153000 12 225 3.2 9.7 0.00 0.05 0.03 68 1006.1
20260505152853 13 233 3.2 9.7 0.00 0.05 0.03 67 1006.6
20260505152748 13 263 3.2 6.4 0.00 0.05 0.03 68 1006.6
20260505152721 13 314 1.6 6.4 0.00 0.05 0.03 68 1006.1
20260505152642 13 331 1.6 6.4 0.00 0.05 0.03 68 1006.1
20260505152537 13 233 3.2 6.4 0.00 0.05 0.03 67 1006.1
20260505152431 13 263 4.8 6.4 0.00 0.05 0.03 68 1006.1
20260505152326 13 330 3.2 4.8 0.00 0.05 0.03 67 1006.1
20260505152220 13 258 0.0 4.8 0.00 0.05 0.03 68 1006.1
20260505152115 13 311 1.6 9.7 0.00 0.05 0.03 69 1005.8
20260505152009 13 146 0.0 12.9 0.00 0.05 0.03 71 1005.8
20260505151903 13 213 1.6 12.9 0.00 0.05 0.03 69 1006.1
20260505151758 13 211 4.8 12.9 0.00 0.05 0.03 70 1005.8
20260505151709 13 195 0.0 12.9 0.00 0.05 0.03 70 1006.1
20260505151652 13 292 1.6 12.9 0.00 0.05 0.03 70 1006.1
20260505151558 13 327 1.6 12.9 0.00 0.05 0.03 70 1005.8
20260505151438 13 280 4.8 12.9 0.00 0.05 0.03 69 1006.1
20260505151333 13 176 3.2 12.9 0.00 0.05 0.03 68 1006.1
20260505151227 13 217 1.6 12.9 0.00 0.05 0.03 69 1006.1
20260505151201 13 220 3.2 12.9 0.00 0.05 0.03 69 1006.1
20260505151122 13 249 3.2 12.9 0.00 0.05 0.03 69 1006.1
20260505151016 13 268 3.2 6.4 0.00 0.05 0.03 70 1006.1
20260505150910 13 256 4.8 6.4 0.00 0.05 0.03 70 1005.8
20260505150805 13 310 1.6 4.8 0.00 0.05 0.03 71 1005.8
20260505150659 13 247 1.6 4.8 0.00 0.05 0.03 70 1005.8
20260505150553 13 251 1.6 4.8 0.00 0.05 0.03 70 1006.1
20260505150447 13 221 1.6 4.8 0.00 0.05 0.03 70 1006.1
20260505150342 13 293 3.2 4.8 0.00 0.05 0.03 69 1005.8
20260505150249 13 218 4.8 4.8 0.00 0.05 0.03 69 1005.8
20260505150148 13 212 4.8 6.4 0.00 0.05 0.03 70 1005.8
20260505150130 13 240 3.2 6.4 0.00 0.05 0.03 71 1005.8
20260505140647 13 166 0.0 6.4 0.00 0.05 0.03 71 1005.5
20260505140540 13 331 3.2 6.4 0.00 0.05 0.03 71 1005.5
20260505140435 13 113 0.0 9.7 0.00 0.05 0.03 70 1005.5
20260505140342 13 350 3.2 9.7 0.00 0.05 0.03 71 1005.5
20260505140223 13 298 1.6 9.7 0.00 0.05 0.03 71 1005.5
20260505140119 13 292 1.6 9.7 0.00 0.05 0.03 71 1005.5